Observation data for Tahoka on 02/14/2020      Previous  Date  Next       Current Mesonet Observations  Soil Data  Daily Summary Page  Observations in Plain Language
KTAS 140600Z 10011KT M03/M04 A3028 RMK A01 T10261039  RH  091%=      5-min Rain = 0
KTAS 140601Z 10010KT M03/M04 A3028 RMK A01 T10261039  RH  091%=      5-min Rain = 0
KTAS 140602Z 10009KT M03/M04 A3028 RMK A01 T10261040  RH  090%=      5-min Rain = 0
KTAS 140603Z 11012KT M03/M04 A3028 RMK A01 T10271040  RH  090%=      5-min Rain = 0
KTAS 140604Z 10010KT M03/M04 A3028 RMK A01 T10271040  RH  091%=      5-min Rain = 0
KTAS 140605Z 11010KT M03/M04 A3028 RMK A01 T10271040  RH  091%=      5-min Rain = 0
KTAS 140606Z 11008KT M03/M04 A3028 RMK A01 T10271041  RH  091%=      5-min Rain = 0
KTAS 140607Z 10010KT M03/M04 A3028 RMK A01 T10271040  RH  091%=      5-min Rain = 0
KTAS 140608Z 10011KT M03/M04 A3028 RMK A01 T10271040  RH  091%=      5-min Rain = 0
KTAS 140609Z 10012KT M03/M04 A3028 RMK A01 T10271040  RH  091%=      5-min Rain = 0
KTAS 140610Z 10010KT M03/M04 A3028 RMK A01 T10271041  RH  091%=      5-min Rain = 0
KTAS 140611Z 10011KT M03/M04 A3028 RMK A01 T10271041  RH  091%=      5-min Rain = 0
KTAS 140612Z 10011KT M03/M04 A3028 RMK A01 T10281041  RH  091%=      5-min Rain = 0
KTAS 140613Z 11009KT M03/M04 A3028 RMK A01 T10281041  RH  091%=      5-min Rain = 0
KTAS 140614Z 10010KT M03/M04 A3028 RMK A01 T10281041  RH  091%=      5-min Rain = 0
KTAS 140615Z 11012KT M03/M04 A3028 RMK A01 T10281041  RH  091%=      5-min Rain = 0
KTAS 140616Z 11012KT M03/M04 A3028 RMK A01 T10281041  RH  091%=      5-min Rain = 0
KTAS 140617Z 10009KT M03/M04 A3028 RMK A01 T10281041  RH  091%=      5-min Rain = 0
KTAS 140618Z 10011KT M03/M04 A3028 RMK A01 T10281041  RH  091%=      5-min Rain = 0
KTAS 140619Z 11009KT M03/M04 A3028 RMK A01 T10281041  RH  091%=      5-min Rain = 0
KTAS 140620Z 10010KT M03/M04 A3028 RMK A01 T10281042  RH  091%=      5-min Rain = 0
KTAS 140621Z 10012KT M03/M04 A3028 RMK A01 T10291042  RH  091%=      5-min Rain = 0
KTAS 140622Z 11012KT M03/M04 A3028 RMK A01 T10291042  RH  091%=      5-min Rain = 0
KTAS 140623Z 10012KT M03/M04 A3028 RMK A01 T10281041  RH  091%=      5-min Rain = 0
KTAS 140624Z 10012KT M03/M04 A3028 RMK A01 T10281042  RH  090%=      5-min Rain = 0
KTAS 140625Z 10010KT M03/M04 A3028 RMK A01 T10281042  RH  090%=      5-min Rain = 0
KTAS 140626Z 10011KT M03/M04 A3028 RMK A01 T10291043  RH  090%=      5-min Rain = 0
KTAS 140627Z 10012KT M03/M04 A3028 RMK A01 T10291043  RH  090%=      5-min Rain = 0
KTAS 140628Z 11010KT M03/M04 A3028 RMK A01 T10291043  RH  090%=      5-min Rain = 0
KTAS 140629Z 11011KT M03/M04 A3028 RMK A01 T10291043  RH  090%=      5-min Rain = 0
KTAS 140630Z 10011KT M03/M04 A3028 RMK A01 T10291043  RH  090%=      5-min Rain = 0
KTAS 140631Z 10012KT M03/M04 A3028 RMK A01 T10291043  RH  090%=      5-min Rain = 0
KTAS 140632Z 10010KT M03/M04 A3028 RMK A01 T10291043  RH  090%=      5-min Rain = 0
KTAS 140633Z 10008KT M03/M04 A3028 RMK A01 T10301044  RH  090%=      5-min Rain = 0
KTAS 140634Z 11009KT M03/M04 A3028 RMK A01 T10301044  RH  090%=      5-min Rain = 0
KTAS 140635Z 10011KT M03/M04 A3028 RMK A01 T10301044  RH  090%=      5-min Rain = 0
KTAS 140636Z 11010KT M03/M04 A3028 RMK A01 T10301044  RH  090%=      5-min Rain = 0
KTAS 140637Z 10010KT M03/M04 A3028 RMK A01 T10311044  RH  090%=      5-min Rain = 0
KTAS 140638Z 11009KT M03/M04 A3028 RMK A01 T10301044  RH  091%=      5-min Rain = 0
KTAS 140639Z 10010KT M03/M04 A3028 RMK A01 T10301043  RH  091%=      5-min Rain = 0
KTAS 140640Z 11010KT M03/M04 A3028 RMK A01 T10301044  RH  090%=      5-min Rain = 0
KTAS 140641Z 11010KT M03/M04 A3028 RMK A01 T10311044  RH  090%=      5-min Rain = 0
KTAS 140642Z 10011KT M03/M04 A3028 RMK A01 T10301044  RH  090%=      5-min Rain = 0
KTAS 140643Z 11012KT M03/M04 A3028 RMK A01 T10311044  RH  090%=      5-min Rain = 0
KTAS 140644Z 10012KT M03/M04 A3028 RMK A01 T10311044  RH  091%=      5-min Rain = 0
KTAS 140645Z 10012KT M03/M04 A3028 RMK A01 T10311044  RH  091%=      5-min Rain = 0
KTAS 140646Z 11011KT M03/M04 A3028 RMK A01 T10301044  RH  091%=      5-min Rain = 0
KTAS 140647Z 11011KT M03/M04 A3028 RMK A01 T10311044  RH  090%=      5-min Rain = 0
KTAS 140648Z 11013KT M03/M05 A3028 RMK A01 T10311045  RH  090%=      5-min Rain = 0
KTAS 140649Z 10013KT M03/M04 A3028 RMK A01 T10311044  RH  090%=      5-min Rain = 0
KTAS 140650Z 10013KT M03/M04 A3028 RMK A01 T10301044  RH  090%=      5-min Rain = 0
KTAS 140651Z 10011KT M03/M04 A3028 RMK A01 T10301044  RH  090%=      5-min Rain = 0
KTAS 140652Z 10012KT M03/M04 A3028 RMK A01 T10301044  RH  090%=      5-min Rain = 0
KTAS 140653Z 10012KT M03/M05 A3028 RMK A01 T10311045  RH  090%=      5-min Rain = 0
KTAS 140654Z 10011KT M03/M05 A3028 RMK A01 T10311045  RH  090%=      5-min Rain = 0
KTAS 140655Z 10013KT M03/M05 A3028 RMK A01 T10311045  RH  090%=      5-min Rain = 0
KTAS 140656Z 10011KT M03/M05 A3028 RMK A01 T10311045  RH  090%=      5-min Rain = 0
KTAS 140657Z 10012KT M03/M05 A3028 RMK A01 T10311045  RH  090%=      5-min Rain = 0
KTAS 140658Z 10012KT M03/M04 A3028 RMK A01 T10311044  RH  091%=      5-min Rain = 0
KTAS 140659Z 11013KT M03/M04 A3029 RMK A01 T10311044  RH  090%=      5-min Rain = 0
KTAS 140700Z 11012KT M03/M04 A3029 RMK A01 T10311044  RH  090%=      5-min Rain = 0
KTAS 140701Z 10012KT M03/M04 A3029 RMK A01 T10311044  RH  090%=      5-min Rain = 0
KTAS 140702Z 11012KT M03/M05 A3028 RMK A01 T10311045  RH  090%=      5-min Rain = 0
KTAS 140703Z 11011KT M03/M05 A3028 RMK A01 T10311045  RH  090%=      5-min Rain = 0
KTAS 140704Z 11010KT M03/M05 A3028 RMK A01 T10311045  RH  090%=      5-min Rain = 0
KTAS 140705Z 11011KT M03/M05 A3028 RMK A01 T10321045  RH  090%=      5-min Rain = 0
KTAS 140706Z 11011KT M03/M05 A3028 RMK A01 T10321046  RH  090%=      5-min Rain = 0
KTAS 140707Z 11011KT M03/M05 A3028 RMK A01 T10321045  RH  090%=      5-min Rain = 0
KTAS 140708Z 11010KT M03/M05 A3028 RMK A01 T10321046  RH  090%=      5-min Rain = 0
KTAS 140709Z 10010KT M03/M05 A3028 RMK A01 T10321046  RH  090%=      5-min Rain = 0
KTAS 140710Z 10011KT M03/M05 A3028 RMK A01 T10331046  RH  090%=      5-min Rain = 0
KTAS 140711Z 10010KT M03/M05 A3028 RMK A01 T10331046  RH  090%=      5-min Rain = 0
KTAS 140712Z 10011KT M03/M05 A3028 RMK A01 T10331046  RH  090%=      5-min Rain = 0
KTAS 140713Z 10012KT M03/M05 A3028 RMK A01 T10331046  RH  090%=      5-min Rain = 0
KTAS 140714Z 11009KT M03/M05 A3028 RMK A01 T10321046  RH  090%=      5-min Rain = 0
KTAS 140715Z 11009KT M03/M05 A3028 RMK A01 T10331047  RH  090%=      5-min Rain = 0
KTAS 140716Z 11008KT M03/M05 A3028 RMK A01 T10331046  RH  090%=      5-min Rain = 0
KTAS 140717Z 11009KT M03/M05 A3028 RMK A01 T10331047  RH  090%=      5-min Rain = 0
KTAS 140718Z 11009KT M03/M05 A3028 RMK A01 T10331047  RH  090%=      5-min Rain = 0
KTAS 140719Z 11008KT M03/M05 A3028 RMK A01 T10331047  RH  090%=      5-min Rain = 0
KTAS 140720Z 11008KT M03/M05 A3028 RMK A01 T10341048  RH  090%=      5-min Rain = 0
KTAS 140721Z 10008KT M03/M05 A3028 RMK A01 T10341048  RH  090%=      5-min Rain = 0
KTAS 140722Z 10009KT M03/M05 A3028 RMK A01 T10341048  RH  091%=      5-min Rain = 0
KTAS 140723Z 10008KT M03/M05 A3029 RMK A01 T10341047  RH  091%=      5-min Rain = 0
KTAS 140724Z 10009KT M04/M05 A3029 RMK A01 T10351048  RH  091%=      5-min Rain = 0
KTAS 140725Z 10011KT M04/M05 A3028 RMK A01 T10351048  RH  091%=      5-min Rain = 0
KTAS 140726Z 10008KT M03/M05 A3028 RMK A01 T10341047  RH  091%=      5-min Rain = 0
KTAS 140727Z 11009KT M03/M05 A3028 RMK A01 T10341047  RH  091%=      5-min Rain = 0
KTAS 140728Z 10010KT M03/M05 A3028 RMK A01 T10341047  RH  090%=      5-min Rain = 0
KTAS 140729Z 10009KT M03/M05 A3029 RMK A01 T10341048  RH  090%=      5-min Rain = 0
KTAS 140730Z 10009KT M03/M05 A3029 RMK A01 T10341048  RH  090%=      5-min Rain = 0
KTAS 140731Z 10009KT M03/M05 A3029 RMK A01 T10341047  RH  090%=      5-min Rain = 0
KTAS 140732Z 10009KT M03/M05 A3029 RMK A01 T10341048  RH  090%=      5-min Rain = 0
KTAS 140733Z 10007KT M04/M05 A3029 RMK A01 T10351048  RH  090%=      5-min Rain = 0
KTAS 140734Z 10008KT M04/M05 A3029 RMK A01 T10351049  RH  090%=      5-min Rain = 0
KTAS 140735Z 10009KT M04/M05 A3029 RMK A01 T10351049  RH  091%=      5-min Rain = 0
KTAS 140736Z 10007KT M04/M05 A3029 RMK A01 T10361049  RH  091%=      5-min Rain = 0
KTAS 140737Z 10008KT M04/M05 A3029 RMK A01 T10361049  RH  091%=      5-min Rain = 0
KTAS 140738Z 10009KT M04/M05 A3029 RMK A01 T10361049  RH  091%=      5-min Rain = 0
KTAS 140739Z 10009KT M04/M05 A3029 RMK A01 T10351048  RH  091%=      5-min Rain = 0
KTAS 140740Z 11009KT M04/M05 A3029 RMK A01 T10351048  RH  091%=      5-min Rain = 0
KTAS 140741Z 10009KT M04/M05 A3029 RMK A01 T10361049  RH  091%=      5-min Rain = 0
KTAS 140742Z 10009KT M04/M05 A3029 RMK A01 T10361049  RH  091%=      5-min Rain = 0
KTAS 140743Z 10009KT M04/M05 A3029 RMK A01 T10361049  RH  091%=      5-min Rain = 0
KTAS 140744Z 10008KT M04/M05 A3029 RMK A01 T10351048  RH  091%=      5-min Rain = 0
KTAS 140745Z 10010KT M04/M05 A3029 RMK A01 T10361049  RH  091%=      5-min Rain = 0
KTAS 140746Z 10010KT M04/M05 A3029 RMK A01 T10361049  RH  091%=      5-min Rain = 0
KTAS 140747Z 10010KT M04/M05 A3029 RMK A01 T10361049  RH  091%=      5-min Rain = 0
KTAS 140748Z 10009KT M04/M05 A3029 RMK A01 T10361049  RH  091%=      5-min Rain = 0
KTAS 140749Z 10009KT M04/M05 A3029 RMK A01 T10361049  RH  091%=      5-min Rain = 0
KTAS 140750Z 11008KT M04/M05 A3029 RMK A01 T10361049  RH  091%=      5-min Rain = 0
KTAS 140751Z 10009KT M04/M05 A3029 RMK A01 T10361049  RH  091%=      5-min Rain = 0
KTAS 140752Z 10010KT M04/M05 A3029 RMK A01 T10371050  RH  091%=      5-min Rain = 0
KTAS 140753Z 10008KT M04/M05 A3029 RMK A01 T10371049  RH  091%=      5-min Rain = 0
KTAS 140754Z 10008KT M04/M05 A3029 RMK A01 T10371049  RH  091%=      5-min Rain = 0
KTAS 140755Z 10009KT M04/M05 A3029 RMK A01 T10371049  RH  091%=      5-min Rain = 0
KTAS 140756Z 10008KT M04/M05 A3029 RMK A01 T10371049  RH  091%=      5-min Rain = 0
KTAS 140757Z 10009KT M04/M05 A3029 RMK A01 T10371049  RH  091%=      5-min Rain = 0
KTAS 140758Z 10008KT M04/M05 A3029 RMK A01 T10371049  RH  091%=      5-min Rain = 0
KTAS 140759Z 10008KT M04/M05 A3029 RMK A01 T10371050  RH  091%=      5-min Rain = 0
KTAS 140800Z 10008KT M04/M05 A3029 RMK A01 T10371050  RH  091%=      5-min Rain = 0
KTAS 140801Z 10007KT M04/M05 A3029 RMK A01 T10381050  RH  091%=      5-min Rain = 0
KTAS 140802Z 10010KT M04/M05 A3029 RMK A01 T10381051  RH  091%=      5-min Rain = 0
KTAS 140803Z 11009KT M04/M05 A3029 RMK A01 T10381050  RH  092%=      5-min Rain = 0
KTAS 140804Z 10007KT M04/M05 A3029 RMK A01 T10371049  RH  092%=      5-min Rain = 0
KTAS 140805Z 10009KT M04/M05 A3029 RMK A01 T10381050  RH  092%=      5-min Rain = 0
KTAS 140806Z 11008KT M04/M05 A3029 RMK A01 T10381050  RH  092%=      5-min Rain = 0
KTAS 140807Z 10008KT M04/M05 A3029 RMK A01 T10381050  RH  092%=      5-min Rain = 0
KTAS 140808Z 11007KT M04/M05 A3029 RMK A01 T10391050  RH  092%=      5-min Rain = 0
KTAS 140809Z 10008KT M04/M05 A3029 RMK A01 T10391050  RH  092%=      5-min Rain = 0
KTAS 140810Z 10009KT M04/M05 A3029 RMK A01 T10391050  RH  092%=      5-min Rain = 0
KTAS 140811Z 10009KT M04/M05 A3029 RMK A01 T10381049  RH  092%=      5-min Rain = 0
KTAS 140812Z 10008KT M04/M05 A3029 RMK A01 T10381049  RH  092%=      5-min Rain = 0
KTAS 140813Z 10007KT M04/M05 A3029 RMK A01 T10381049  RH  092%=      5-min Rain = 0
KTAS 140814Z 10008KT M04/M05 A3029 RMK A01 T10381049  RH  092%=      5-min Rain = 0
KTAS 140815Z 10007KT M04/M05 A3029 RMK A01 T10381049  RH  092%=      5-min Rain = 0
KTAS 140816Z 10007KT M04/M05 A3029 RMK A01 T10381050  RH  092%=      5-min Rain = 0
KTAS 140817Z 10006KT M04/M05 A3029 RMK A01 T10391050  RH  092%=      5-min Rain = 0
KTAS 140818Z 10008KT M04/M05 A3029 RMK A01 T10391050  RH  092%=      5-min Rain = 0
KTAS 140819Z 10008KT M04/M05 A3029 RMK A01 T10391050  RH  092%=      5-min Rain = 0
KTAS 140820Z 10009KT M04/M05 A3029 RMK A01 T10391050  RH  092%=      5-min Rain = 0
KTAS 140821Z 10007KT M04/M05 A3029 RMK A01 T10381049  RH  092%=      5-min Rain = 0
KTAS 140822Z 10008KT M04/M05 A3029 RMK A01 T10381049  RH  092%=      5-min Rain = 0
KTAS 140823Z 10008KT M04/M05 A3029 RMK A01 T10391050  RH  092%=      5-min Rain = 0
KTAS 140824Z 10007KT M04/M05 A3029 RMK A01 T10391050  RH  092%=      5-min Rain = 0
KTAS 140825Z 10008KT M04/M05 A3029 RMK A01 T10391050  RH  092%=      5-min Rain = 0
KTAS 140826Z 10008KT M04/M05 A3029 RMK A01 T10391049  RH  092%=      5-min Rain = 0
KTAS 140827Z 11007KT M04/M05 A3029 RMK A01 T10391049  RH  092%=      5-min Rain = 0
KTAS 140828Z 10006KT M04/M05 A3029 RMK A01 T10391049  RH  092%=      5-min Rain = 0
KTAS 140829Z 11006KT M04/M05 A3029 RMK A01 T10391050  RH  092%=      5-min Rain = 0
KTAS 140830Z 11008KT M04/M05 A3029 RMK A01 T10391050  RH  092%=      5-min Rain = 0
KTAS 140831Z 10007KT M04/M05 A3029 RMK A01 T10391050  RH  092%=      5-min Rain = 0
KTAS 140832Z 11006KT M04/M05 A3029 RMK A01 T10391050  RH  092%=      5-min Rain = 0
KTAS 140833Z 10007KT M04/M05 A3029 RMK A01 T10401051  RH  092%=      5-min Rain = 0
KTAS 140834Z 10007KT M04/M05 A3029 RMK A01 T10401051  RH  092%=      5-min Rain = 0
KTAS 140835Z 10007KT M04/M05 A3029 RMK A01 T10401051  RH  092%=      5-min Rain = 0
KTAS 140836Z 10007KT M04/M05 A3029 RMK A01 T10411051  RH  092%=      5-min Rain = 0
KTAS 140837Z 10008KT M04/M05 A3029 RMK A01 T10411051  RH  093%=      5-min Rain = 0
KTAS 140838Z 10007KT M04/M05 A3029 RMK A01 T10411051  RH  093%=      5-min Rain = 0
KTAS 140839Z 10006KT M04/M05 A3029 RMK A01 T10411051  RH  093%=      5-min Rain = 0
KTAS 140840Z 10006KT M04/M05 A3029 RMK A01 T10411051  RH  093%=      5-min Rain = 0
KTAS 140841Z 10006KT M04/M05 A3029 RMK A01 T10421052  RH  093%=      5-min Rain = 0
KTAS 140842Z 11007KT M04/M05 A3029 RMK A01 T10421052  RH  093%=      5-min Rain = 0
KTAS 140843Z 10006KT M04/M05 A3029 RMK A01 T10421052  RH  093%=      5-min Rain = 0
KTAS 140844Z 10006KT M04/M05 A3029 RMK A01 T10431052  RH  093%=      5-min Rain = 0
KTAS 140845Z 10006KT M04/M05 A3029 RMK A01 T10431052  RH  093%=      5-min Rain = 0
KTAS 140846Z 10006KT M04/M05 A3029 RMK A01 T10431052  RH  093%=      5-min Rain = 0
KTAS 140847Z 10006KT M04/M05 A3029 RMK A01 T10431052  RH  093%=      5-min Rain = 0
KTAS 140848Z 10005KT M04/M05 A3029 RMK A01 T10431052  RH  093%=      5-min Rain = 0
KTAS 140849Z 10005KT M04/M05 A3029 RMK A01 T10431052  RH  093%=      5-min Rain = 0
KTAS 140850Z 10005KT M04/M05 A3029 RMK A01 T10431052  RH  093%=      5-min Rain = 0
KTAS 140851Z 11005KT M04/M05 A3029 RMK A01 T10441053  RH  093%=      5-min Rain = 0
KTAS 140852Z 11006KT M04/M05 A3029 RMK A01 T10441053  RH  093%=      5-min Rain = 0
KTAS 140853Z 11006KT M04/M05 A3029 RMK A01 T10441052  RH  094%=      5-min Rain = 0
KTAS 140854Z 11006KT M04/M05 A3029 RMK A01 T10431052  RH  094%=      5-min Rain = 0
KTAS 140855Z 10005KT M04/M05 A3029 RMK A01 T10431052  RH  094%=      5-min Rain = 0
KTAS 140856Z 11005KT M04/M05 A3029 RMK A01 T10431051  RH  094%=      5-min Rain = 0
KTAS 140857Z 10005KT M04/M05 A3029 RMK A01 T10431051  RH  094%=      5-min Rain = 0
KTAS 140858Z 10006KT M04/M05 A3029 RMK A01 T10421051  RH  094%=      5-min Rain = 0
KTAS 140859Z 10006KT M04/M05 A3029 RMK A01 T10421050  RH  094%=      5-min Rain = 0
KTAS 140900Z 10006KT M04/M05 A3029 RMK A01 T10421050  RH  094%=      5-min Rain = 0
KTAS 140901Z 10006KT M04/M05 A3029 RMK A01 T10411050  RH  094%=      5-min Rain = 0
KTAS 140902Z 09004KT M04/M05 A3029 RMK A01 T10411050  RH  094%=      5-min Rain = 0
KTAS 140903Z 09005KT M04/M05 A3029 RMK A01 T10411050  RH  094%=      5-min Rain = 0
KTAS 140904Z 09006KT M04/M05 A3029 RMK A01 T10421050  RH  094%=      5-min Rain = 0
KTAS 140905Z 09004KT M04/M05 A3029 RMK A01 T10411050  RH  094%=      5-min Rain = 0
KTAS 140906Z 10004KT M04/M05 A3029 RMK A01 T10411050  RH  094%=      5-min Rain = 0
KTAS 140907Z 10005KT M04/M05 A3029 RMK A01 T10411050  RH  094%=      5-min Rain = 0
KTAS 140908Z 09005KT M04/M05 A3029 RMK A01 T10411049  RH  094%=      5-min Rain = 0
KTAS 140909Z 11005KT M04/M05 A3029 RMK A01 T10411049  RH  094%=      5-min Rain = 0
KTAS 140910Z 10005KT M04/M05 A3029 RMK A01 T10411049  RH  094%=      5-min Rain = 0
KTAS 140911Z 10004KT M04/M05 A3029 RMK A01 T10411049  RH  094%=      5-min Rain = 0
KTAS 140912Z 10004KT M04/M05 A3029 RMK A01 T10411049  RH  094%=      5-min Rain = 0
KTAS 140913Z 11004KT M04/M05 A3029 RMK A01 T10411049  RH  094%=      5-min Rain = 0
KTAS 140914Z 10005KT M04/M05 A3029 RMK A01 T10411050  RH  094%=      5-min Rain = 0
KTAS 140915Z 10006KT M04/M05 A3029 RMK A01 T10411050  RH  094%=      5-min Rain = 0
KTAS 140916Z 10006KT M04/M05 A3029 RMK A01 T10411050  RH  094%=      5-min Rain = 0
KTAS 140917Z 10006KT M04/M05 A3029 RMK A01 T10411049  RH  094%=      5-min Rain = 0
KTAS 140918Z 11005KT M04/M05 A3029 RMK A01 T10411049  RH  094%=      5-min Rain = 0
KTAS 140919Z 10005KT M04/M05 A3029 RMK A01 T10411049  RH  094%=      5-min Rain = 0
KTAS 140920Z 10005KT M04/M05 A3029 RMK A01 T10411049  RH  094%=      5-min Rain = 0
KTAS 140921Z 10003KT M04/M05 A3029 RMK A01 T10411049  RH  094%=      5-min Rain = 0
KTAS 140922Z 10004KT M04/M05 A3029 RMK A01 T10411049  RH  094%=      5-min Rain = 0
KTAS 140923Z 10005KT M04/M05 A3029 RMK A01 T10411049  RH  094%=      5-min Rain = 0
KTAS 140924Z 09004KT M04/M05 A3029 RMK A01 T10411049  RH  094%=      5-min Rain = 0
KTAS 140925Z 09004KT M04/M05 A3029 RMK A01 T10411050  RH  094%=      5-min Rain = 0
KTAS 140926Z 09004KT M04/M05 A3029 RMK A01 T10421051  RH  094%=      5-min Rain = 0
KTAS 140927Z 09005KT M04/M05 A3029 RMK A01 T10431052  RH  094%=      5-min Rain = 0
KTAS 140928Z 09005KT M04/M05 A3029 RMK A01 T10441053  RH  093%=      5-min Rain = 0
KTAS 140929Z 09005KT M04/M05 A3029 RMK A01 T10441053  RH  093%=      5-min Rain = 0
KTAS 140930Z 09006KT M05/M05 A3029 RMK A01 T10451054  RH  093%=      5-min Rain = 0
KTAS 140931Z 08005KT M05/M06 A3029 RMK A01 T10461055  RH  094%=      5-min Rain = 0
KTAS 140932Z 08005KT M05/M05 A3029 RMK A01 T10451054  RH  094%=      5-min Rain = 0
KTAS 140933Z 09005KT M05/M05 A3029 RMK A01 T10461054  RH  094%=      5-min Rain = 0
KTAS 140934Z 08004KT M05/M06 A3029 RMK A01 T10461055  RH  094%=      5-min Rain = 0
KTAS 140935Z 08004KT M05/M06 A3029 RMK A01 T10471056  RH  094%=      5-min Rain = 0
KTAS 140936Z 08004KT M05/M06 A3029 RMK A01 T10481057  RH  094%=      5-min Rain = 0
KTAS 140937Z 08004KT M05/M06 A3029 RMK A01 T10491058  RH  094%=      5-min Rain = 0
KTAS 140938Z 08003KT M05/M06 A3029 RMK A01 T10491058  RH  094%=      5-min Rain = 0
KTAS 140939Z 08003KT M05/M06 A3029 RMK A01 T10501059  RH  094%=      5-min Rain = 0
KTAS 140940Z 07004KT M05/M06 A3029 RMK A01 T10511059  RH  094%=      5-min Rain = 0
KTAS 140941Z 08004KT M05/M06 A3029 RMK A01 T10511060  RH  094%=      5-min Rain = 0
KTAS 140942Z 08004KT M05/M06 A3029 RMK A01 T10521061  RH  094%=      5-min Rain = 0
KTAS 140943Z 08004KT M05/M06 A3029 RMK A01 T10531061  RH  094%=      5-min Rain = 0
KTAS 140944Z 08005KT M05/M06 A3029 RMK A01 T10531061  RH  094%=      5-min Rain = 0
KTAS 140945Z 08005KT M05/M06 A3029 RMK A01 T10531062  RH  094%=      5-min Rain = 0
KTAS 140946Z 08004KT M05/M06 A3029 RMK A01 T10541062  RH  094%=      5-min Rain = 0
KTAS 140947Z 08004KT M05/M06 A3029 RMK A01 T10541062  RH  094%=      5-min Rain = 0
KTAS 140948Z 08004KT M06/M06 A3029 RMK A01 T10551063  RH  094%=      5-min Rain = 0
KTAS 140949Z 09004KT M06/M06 A3029 RMK A01 T10551063  RH  094%=      5-min Rain = 0
KTAS 140950Z 10003KT M06/M06 A3029 RMK A01 T10561063  RH  094%=      5-min Rain = 0
KTAS 140951Z 10004KT M06/M06 A303 RMK A01 T10561063  RH  094%=      5-min Rain = 0
KTAS 140952Z 10004KT M06/M06 A303 RMK A01 T10561063  RH  094%=      5-min Rain = 0
KTAS 140953Z 10004KT M06/M06 A303 RMK A01 T10561064  RH  094%=      5-min Rain = 0
KTAS 140954Z 09004KT M06/M06 A303 RMK A01 T10571064  RH  094%=      5-min Rain = 0
KTAS 140955Z 09004KT M06/M07 A303 RMK A01 T10571065  RH  094%=      5-min Rain = 0
KTAS 140956Z 09005KT M06/M07 A303 RMK A01 T10581065  RH  094%=      5-min Rain = 0
KTAS 140957Z 09005KT M06/M07 A303 RMK A01 T10581065  RH  095%=      5-min Rain = 0
KTAS 140958Z 09004KT M06/M06 A303 RMK A01 T10571064  RH  095%=      5-min Rain = 0
KTAS 140959Z 08004KT M06/M06 A303 RMK A01 T10571064  RH  095%=      5-min Rain = 0
KTAS 141000Z 09005KT M06/M06 A3029 RMK A01 T10571064  RH  095%=      5-min Rain = 0
KTAS 141001Z 09004KT M06/M07 A3029 RMK A01 T10581065  RH  095%=      5-min Rain = 0
KTAS 141002Z 08004KT M06/M07 A3029 RMK A01 T10581065  RH  095%=      5-min Rain = 0
KTAS 141003Z 09004KT M06/M07 A3029 RMK A01 T10581065  RH  095%=      5-min Rain = 0
KTAS 141004Z 09004KT M06/M07 A3029 RMK A01 T10581065  RH  095%=      5-min Rain = 0
KTAS 141005Z 09004KT M06/M07 A3029 RMK A01 T10581065  RH  095%=      5-min Rain = 0
KTAS 141006Z 09004KT M06/M07 A3029 RMK A01 T10581065  RH  095%=      5-min Rain = 0
KTAS 141007Z 08004KT M06/M07 A3029 RMK A01 T10581065  RH  095%=      5-min Rain = 0
KTAS 141008Z 08004KT M06/M07 A3029 RMK A01 T10581065  RH  095%=      5-min Rain = 0
KTAS 141009Z 08004KT M06/M07 A3029 RMK A01 T10591066  RH  095%=      5-min Rain = 0
KTAS 141010Z 07004KT M06/M07 A3029 RMK A01 T10591066  RH  095%=      5-min Rain = 0
KTAS 141011Z 07005KT M06/M07 A3029 RMK A01 T10591066  RH  095%=      5-min Rain = 0
KTAS 141012Z 07005KT M06/M07 A3029 RMK A01 T10591066  RH  095%=      5-min Rain = 0
KTAS 141013Z 07005KT M06/M07 A3029 RMK A01 T10591065  RH  095%=      5-min Rain = 0
KTAS 141014Z 07005KT M06/M06 A3029 RMK A01 T10581064  RH  095%=      5-min Rain = 0
KTAS 141015Z 08005KT M06/M06 A3029 RMK A01 T10571064  RH  095%=      5-min Rain = 0
KTAS 141016Z 08005KT M06/M06 A3029 RMK A01 T10571063  RH  095%=      5-min Rain = 0
KTAS 141017Z 08005KT M06/M06 A3029 RMK A01 T10571063  RH  095%=      5-min Rain = 0
KTAS 141018Z 08004KT M06/M06 A3029 RMK A01 T10561063  RH  095%=      5-min Rain = 0
KTAS 141019Z 08004KT M06/M06 A3029 RMK A01 T10561063  RH  095%=      5-min Rain = 0
KTAS 141020Z 09004KT M06/M06 A3029 RMK A01 T10561063  RH  095%=      5-min Rain = 0
KTAS 141021Z 09004KT M06/M06 A3029 RMK A01 T10561063  RH  095%=      5-min Rain = 0
KTAS 141022Z 08004KT M06/M06 A3029 RMK A01 T10571063  RH  095%=      5-min Rain = 0
KTAS 141023Z 08004KT M06/M06 A3029 RMK A01 T10571063  RH  095%=      5-min Rain = 0
KTAS 141024Z 08004KT M06/M06 A3029 RMK A01 T10581064  RH  095%=      5-min Rain = 0
KTAS 141025Z 08004KT M06/M06 A3029 RMK A01 T10581064  RH  095%=      5-min Rain = 0
KTAS 141026Z 08004KT M06/M06 A3029 RMK A01 T10581064  RH  095%=      5-min Rain = 0
KTAS 141027Z 07004KT M06/M06 A3029 RMK A01 T10581064  RH  095%=      5-min Rain = 0
KTAS 141028Z 07005KT M06/M06 A3029 RMK A01 T10581064  RH  095%=      5-min Rain = 0
KTAS 141029Z 07005KT M06/M07 A3029 RMK A01 T10581065  RH  095%=      5-min Rain = 0
KTAS 141030Z 07004KT M06/M06 A3029 RMK A01 T10581064  RH  095%=      5-min Rain = 0
KTAS 141031Z 07004KT M06/M06 A3029 RMK A01 T10581064  RH  095%=      5-min Rain = 0
KTAS 141032Z 07005KT M06/M06 A3029 RMK A01 T10581064  RH  095%=      5-min Rain = 0
KTAS 141033Z 07005KT M06/M06 A3029 RMK A01 T10571063  RH  095%=      5-min Rain = 0
KTAS 141034Z 08004KT M06/M06 A3029 RMK A01 T10571063  RH  095%=      5-min Rain = 0
KTAS 141035Z 08004KT M06/M06 A3029 RMK A01 T10561062  RH  095%=      5-min Rain = 0
KTAS 141036Z 08004KT M06/M06 A3029 RMK A01 T10561062  RH  095%=      5-min Rain = 0
KTAS 141037Z 08005KT M06/M06 A3029 RMK A01 T10551061  RH  096%=      5-min Rain = 0
KTAS 141038Z 08005KT M05/M06 A3029 RMK A01 T10541060  RH  096%=      5-min Rain = 0
KTAS 141039Z 08004KT M05/M06 A3029 RMK A01 T10541060  RH  096%=      5-min Rain = 0
KTAS 141040Z 07004KT M05/M06 A3029 RMK A01 T10531059  RH  096%=      5-min Rain = 0
KTAS 141041Z 08005KT M05/M06 A3029 RMK A01 T10531059  RH  096%=      5-min Rain = 0
KTAS 141042Z 07005KT M05/M06 A3029 RMK A01 T10521058  RH  096%=      5-min Rain = 0
KTAS 141043Z 08004KT M05/M06 A3029 RMK A01 T10521058  RH  096%=      5-min Rain = 0
KTAS 141044Z 08004KT M05/M06 A3029 RMK A01 T10511057  RH  096%=      5-min Rain = 0
KTAS 141045Z 08005KT M05/M06 A3029 RMK A01 T10511057  RH  095%=      5-min Rain = 0
KTAS 141046Z 08004KT M05/M06 A3029 RMK A01 T10511057  RH  095%=      5-min Rain = 0
KTAS 141047Z 08004KT M05/M06 A3029 RMK A01 T10501057  RH  095%=      5-min Rain = 0
KTAS 141048Z 09004KT M05/M06 A3029 RMK A01 T10501056  RH  095%=      5-min Rain = 0
KTAS 141049Z 09005KT M05/M06 A3029 RMK A01 T10501056  RH  095%=      5-min Rain = 0
KTAS 141050Z 08004KT M05/M06 A3029 RMK A01 T10491055  RH  095%=      5-min Rain = 0
KTAS 141051Z 08004KT M05/M06 A3029 RMK A01 T10481055  RH  095%=      5-min Rain = 0
KTAS 141052Z 09004KT M05/M05 A3029 RMK A01 T10481054  RH  095%=      5-min Rain = 0
KTAS 141053Z 08004KT M05/M05 A3029 RMK A01 T10481054  RH  095%=      5-min Rain = 0
KTAS 141054Z 09003KT M05/M05 A3029 RMK A01 T10471054  RH  095%=      5-min Rain = 0
KTAS 141055Z 09004KT M05/M05 A3029 RMK A01 T10471053  RH  095%=      5-min Rain = 0
KTAS 141056Z 09005KT M05/M05 A3029 RMK A01 T10461053  RH  095%=      5-min Rain = 0
KTAS 141057Z 10005KT M05/M05 A3029 RMK A01 T10461052  RH  095%=      5-min Rain = 0
KTAS 141058Z 09004KT M05/M05 A3029 RMK A01 T10451052  RH  095%=      5-min Rain = 0
KTAS 141059Z 09003KT M05/M05 A3029 RMK A01 T10451052  RH  095%=      5-min Rain = 0
KTAS 141100Z 09003KT M05/M05 A3029 RMK A01 T10451052  RH  095%=      5-min Rain = 0
KTAS 141101Z 09005KT M05/M05 A3029 RMK A01 T10451052  RH  095%=      5-min Rain = 0
KTAS 141102Z 09004KT M04/M05 A3029 RMK A01 T10441052  RH  095%=      5-min Rain = 0
KTAS 141103Z 08005KT M05/M05 A3029 RMK A01 T10451052  RH  094%=      5-min Rain = 0
KTAS 141104Z 09005KT M04/M05 A3029 RMK A01 T10441052  RH  094%=      5-min Rain = 0
KTAS 141105Z 08004KT M04/M05 A3029 RMK A01 T10441052  RH  094%=      5-min Rain = 0
KTAS 141106Z 07004KT M04/M05 A3029 RMK A01 T10441052  RH  094%=      5-min Rain = 0
KTAS 141107Z 06005KT M04/M05 A3029 RMK A01 T10441052  RH  094%=      5-min Rain = 0
KTAS 141108Z 07005KT M04/M05 A3029 RMK A01 T10441053  RH  094%=      5-min Rain = 0
KTAS 141109Z 07005KT M05/M05 A3029 RMK A01 T10451053  RH  094%=      5-min Rain = 0
KTAS 141110Z 07004KT M05/M05 A3029 RMK A01 T10451054  RH  094%=      5-min Rain = 0
KTAS 141111Z 07005KT M05/M05 A3029 RMK A01 T10451054  RH  094%=      5-min Rain = 0
KTAS 141112Z 07006KT M05/M05 A3029 RMK A01 T10451054  RH  094%=      5-min Rain = 0
KTAS 141113Z 07006KT M05/M06 A3029 RMK A01 T10461055  RH  094%=      5-min Rain = 0
KTAS 141114Z 07005KT M05/M06 A3029 RMK A01 T10461055  RH  094%=      5-min Rain = 0
KTAS 141115Z 07006KT M05/M06 A3029 RMK A01 T10461055  RH  094%=      5-min Rain = 0
KTAS 141116Z 07005KT M05/M06 A303 RMK A01 T10461055  RH  094%=      5-min Rain = 0
KTAS 141117Z 07007KT M05/M06 A303 RMK A01 T10461055  RH  094%=      5-min Rain = 0
KTAS 141118Z 07006KT M05/M06 A303 RMK A01 T10461056  RH  093%=      5-min Rain = 0
KTAS 141119Z 07006KT M05/M06 A303 RMK A01 T10461056  RH  093%=      5-min Rain = 0
KTAS 141120Z 07007KT M05/M06 A303 RMK A01 T10461056  RH  093%=      5-min Rain = 0
KTAS 141121Z 07006KT M05/M06 A303 RMK A01 T10461056  RH  093%=      5-min Rain = 0
KTAS 141122Z 08005KT M05/M06 A303 RMK A01 T10471056  RH  093%=      5-min Rain = 0
KTAS 141123Z 08005KT M05/M06 A303 RMK A01 T10461056  RH  093%=      5-min Rain = 0
KTAS 141124Z 08004KT M05/M06 A303 RMK A01 T10461056  RH  093%=      5-min Rain = 0
KTAS 141125Z 08004KT M05/M06 A303 RMK A01 T10461055  RH  093%=      5-min Rain = 0
KTAS 141126Z 08005KT M05/M06 A303 RMK A01 T10461056  RH  093%=      5-min Rain = 0
KTAS 141127Z 07005KT M05/M06 A303 RMK A01 T10461056  RH  093%=      5-min Rain = 0
KTAS 141128Z 07005KT M05/M06 A303 RMK A01 T10461055  RH  093%=      5-min Rain = 0
KTAS 141129Z 07005KT M05/M06 A303 RMK A01 T10461055  RH  093%=      5-min Rain = 0
KTAS 141130Z 07005KT M05/M06 A303 RMK A01 T10461055  RH  093%=      5-min Rain = 0
KTAS 141131Z 07005KT M05/M06 A303 RMK A01 T10461056  RH  093%=      5-min Rain = 0
KTAS 141132Z 07005KT M05/M06 A303 RMK A01 T10461056  RH  093%=      5-min Rain = 0
KTAS 141133Z 08006KT M05/M06 A303 RMK A01 T10461056  RH  093%=      5-min Rain = 0
KTAS 141134Z 07005KT M05/M06 A303 RMK A01 T10461056  RH  093%=      5-min Rain = 0
KTAS 141135Z 08006KT M05/M06 A303 RMK A01 T10461056  RH  093%=      5-min Rain = 0
KTAS 141136Z 08005KT M05/M06 A303 RMK A01 T10461056  RH  093%=      5-min Rain = 0
KTAS 141137Z 08005KT M05/M06 A303 RMK A01 T10461056  RH  093%=      5-min Rain = 0
KTAS 141138Z 07006KT M05/M06 A303 RMK A01 T10461056  RH  093%=      5-min Rain = 0
KTAS 141139Z 07006KT M05/M06 A303 RMK A01 T10461056  RH  093%=      5-min Rain = 0
KTAS 141140Z 07006KT M05/M06 A303 RMK A01 T10461057  RH  092%=      5-min Rain = 0
KTAS 141141Z 07006KT M05/M06 A303 RMK A01 T10471057  RH  092%=      5-min Rain = 0
KTAS 141142Z 07006KT M05/M06 A303 RMK A01 T10471057  RH  092%=      5-min Rain = 0
KTAS 141143Z 07005KT M05/M06 A303 RMK A01 T10461057  RH  092%=      5-min Rain = 0
KTAS 141144Z 07005KT M05/M06 A303 RMK A01 T10471057  RH  092%=      5-min Rain = 0
KTAS 141145Z 08004KT M05/M06 A303 RMK A01 T10461057  RH  092%=      5-min Rain = 0
KTAS 141146Z 07005KT M05/M06 A303 RMK A01 T10471057  RH  092%=      5-min Rain = 0
KTAS 141147Z 08004KT M05/M06 A303 RMK A01 T10461057  RH  092%=      5-min Rain = 0
KTAS 141148Z 08003KT M05/M06 A303 RMK A01 T10461057  RH  092%=      5-min Rain = 0
KTAS 141149Z 08004KT M05/M06 A303 RMK A01 T10461057  RH  092%=      5-min Rain = 0
KTAS 141150Z 07004KT M05/M06 A303 RMK A01 T10461057  RH  092%=      5-min Rain = 0
KTAS 141151Z 08004KT M05/M06 A303 RMK A01 T10461057  RH  092%=      5-min Rain = 0
KTAS 141152Z 07004KT M05/M06 A303 RMK A01 T10461057  RH  092%=      5-min Rain = 0
KTAS 141153Z 08004KT M05/M06 A303 RMK A01 T10461057  RH  092%=      5-min Rain = 0
KTAS 141154Z 08005KT M05/M06 A303 RMK A01 T10451056  RH  092%=      5-min Rain = 0
KTAS 141155Z 08004KT M05/M06 A303 RMK A01 T10451056  RH  092%=      5-min Rain = 0
KTAS 141156Z 08004KT M05/M06 A303 RMK A01 T10451056  RH  092%=      5-min Rain = 0
KTAS 141157Z 08005KT M05/M06 A303 RMK A01 T10461057  RH  092%=      5-min Rain = 0
KTAS 141158Z 08004KT M05/M06 A303 RMK A01 T10461057  RH  092%=      5-min Rain = 0
KTAS 141159Z 08004KT M05/M06 A303 RMK A01 T10451057  RH  092%=      5-min Rain = 0
KTAS 141200Z 08004KT M05/M06 A303 RMK A01 T10461057  RH  092%=      5-min Rain = 0
KTAS 141201Z 08003KT M05/M06 A303 RMK A01 T10461057  RH  092%=      5-min Rain = 0
KTAS 141202Z 08004KT M05/M06 A303 RMK A01 T10451057  RH  092%=      5-min Rain = 0
KTAS 141203Z 08003KT M05/M06 A303 RMK A01 T10451057  RH  092%=      5-min Rain = 0
KTAS 141204Z 09003KT M05/M06 A303 RMK A01 T10451057  RH  092%=      5-min Rain = 0
KTAS 141205Z 10004KT M05/M06 A303 RMK A01 T10451057  RH  092%=      5-min Rain = 0
KTAS 141206Z 10003KT M05/M06 A303 RMK A01 T10451057  RH  092%=      5-min Rain = 0
KTAS 141207Z 09004KT M05/M06 A303 RMK A01 T10451057  RH  092%=      5-min Rain = 0
KTAS 141208Z 09004KT M05/M06 A303 RMK A01 T10451057  RH  092%=      5-min Rain = 0
KTAS 141209Z 09005KT M05/M06 A303 RMK A01 T10451057  RH  091%=      5-min Rain = 0
KTAS 141210Z 09005KT M05/M06 A303 RMK A01 T10451057  RH  091%=      5-min Rain = 0
KTAS 141211Z 09006KT M05/M06 A303 RMK A01 T10451057  RH  091%=      5-min Rain = 0
KTAS 141212Z 09005KT M05/M06 A303 RMK A01 T10451058  RH  091%=      5-min Rain = 0
KTAS 141213Z 09005KT M05/M06 A303 RMK A01 T10461058  RH  091%=      5-min Rain = 0
KTAS 141214Z 09005KT M05/M06 A303 RMK A01 T10461059  RH  091%=      5-min Rain = 0
KTAS 141215Z 10004KT M05/M06 A303 RMK A01 T10461058  RH  091%=      5-min Rain = 0
KTAS 141216Z 09005KT M05/M06 A303 RMK A01 T10461058  RH  091%=      5-min Rain = 0
KTAS 141217Z 08005KT M05/M06 A303 RMK A01 T10461058  RH  091%=      5-min Rain = 0
KTAS 141218Z 09004KT M05/M06 A303 RMK A01 T10461058  RH  091%=      5-min Rain = 0
KTAS 141219Z 09004KT M05/M06 A303 RMK A01 T10461058  RH  091%=      5-min Rain = 0
KTAS 141220Z 09005KT M05/M06 A303 RMK A01 T10461058  RH  091%=      5-min Rain = 0
KTAS 141221Z 08005KT M05/M06 A303 RMK A01 T10461058  RH  091%=      5-min Rain = 0
KTAS 141222Z 09005KT M05/M06 A303 RMK A01 T10461058  RH  091%=      5-min Rain = 0
KTAS 141223Z 09005KT M05/M06 A303 RMK A01 T10461059  RH  091%=      5-min Rain = 0
KTAS 141224Z 09005KT M05/M06 A303 RMK A01 T10461058  RH  091%=      5-min Rain = 0
KTAS 141225Z 09003KT M05/M06 A303 RMK A01 T10461058  RH  091%=      5-min Rain = 0
KTAS 141226Z 09004KT M05/M06 A303 RMK A01 T10461058  RH  091%=      5-min Rain = 0
KTAS 141227Z 10005KT M05/M06 A303 RMK A01 T10461058  RH  091%=      5-min Rain = 0
KTAS 141228Z 09006KT M05/M06 A303 RMK A01 T10461058  RH  091%=      5-min Rain = 0
KTAS 141229Z 09006KT M05/M06 A303 RMK A01 T10461059  RH  091%=      5-min Rain = 0
KTAS 141230Z 09005KT M05/M06 A303 RMK A01 T10461059  RH  091%=      5-min Rain = 0
KTAS 141231Z 09005KT M05/M06 A303 RMK A01 T10461058  RH  091%=      5-min Rain = 0
KTAS 141232Z 10004KT M05/M06 A303 RMK A01 T10471058  RH  091%=      5-min Rain = 0
KTAS 141233Z 09005KT M05/M06 A303 RMK A01 T10461058  RH  092%=      5-min Rain = 0
KTAS 141234Z 09006KT M05/M06 A303 RMK A01 T10461058  RH  092%=      5-min Rain = 0
KTAS 141235Z 08006KT M05/M06 A303 RMK A01 T10461058  RH  092%=      5-min Rain = 0
KTAS 141236Z 08006KT M05/M06 A303 RMK A01 T10471058  RH  092%=      5-min Rain = 0
KTAS 141237Z 08006KT M05/M06 A303 RMK A01 T10471059  RH  092%=      5-min Rain = 0
KTAS 141238Z 10006KT M05/M06 A3031 RMK A01 T10471058  RH  092%=      5-min Rain = 0
KTAS 141239Z 09004KT M05/M06 A3031 RMK A01 T10471058  RH  092%=      5-min Rain = 0
KTAS 141240Z 09004KT M05/M06 A303 RMK A01 T10461057  RH  092%=      5-min Rain = 0
KTAS 141241Z 09004KT M05/M06 A303 RMK A01 T10461058  RH  092%=      5-min Rain = 0
KTAS 141242Z 09003KT M05/M06 A303 RMK A01 T10461058  RH  092%=      5-min Rain = 0
KTAS 141243Z 09003KT M05/M06 A303 RMK A01 T10461057  RH  092%=      5-min Rain = 0
KTAS 141244Z 09005KT M05/M06 A303 RMK A01 T10461057  RH  092%=      5-min Rain = 0
KTAS 141245Z 10004KT M05/M06 A303 RMK A01 T10461058  RH  092%=      5-min Rain = 0
KTAS 141246Z 09004KT M05/M06 A303 RMK A01 T10461058  RH  092%=      5-min Rain = 0
KTAS 141247Z 09004KT M05/M06 A3031 RMK A01 T10471058  RH  092%=      5-min Rain = 0
KTAS 141248Z 09004KT M05/M06 A3031 RMK A01 T10461058  RH  092%=      5-min Rain = 0
KTAS 141249Z 09005KT M05/M06 A3031 RMK A01 T10461057  RH  092%=      5-min Rain = 0
KTAS 141250Z 09003KT M05/M06 A3031 RMK A01 T10461057  RH  092%=      5-min Rain = 0
KTAS 141251Z 09005KT M05/M06 A3031 RMK A01 T10461057  RH  092%=      5-min Rain = 0
KTAS 141252Z 09005KT M05/M06 A3031 RMK A01 T10461058  RH  092%=      5-min Rain = 0
KTAS 141253Z 09004KT M05/M06 A3031 RMK A01 T10461058  RH  092%=      5-min Rain = 0
KTAS 141254Z 11004KT M05/M06 A3031 RMK A01 T10471058  RH  092%=      5-min Rain = 0
KTAS 141255Z 10004KT M05/M06 A3031 RMK A01 T10461058  RH  092%=      5-min Rain = 0
KTAS 141256Z 11003KT M05/M06 A3031 RMK A01 T10461058  RH  092%=      5-min Rain = 0
KTAS 141257Z 10004KT M05/M06 A3031 RMK A01 T10461057  RH  092%=      5-min Rain = 0
KTAS 141258Z 10004KT M05/M06 A3031 RMK A01 T10461057  RH  092%=      5-min Rain = 0
KTAS 141259Z 10005KT M05/M06 A3031 RMK A01 T10461057  RH  092%=      5-min Rain = 0
KTAS 141300Z 10004KT M05/M06 A3031 RMK A01 T10461058  RH  092%=      5-min Rain = 0
KTAS 141301Z 10004KT M05/M06 A3031 RMK A01 T10461057  RH  092%=      5-min Rain = 0
KTAS 141302Z 10005KT M05/M06 A3031 RMK A01 T10461057  RH  092%=      5-min Rain = 0
KTAS 141303Z 09004KT M05/M06 A3031 RMK A01 T10461057  RH  092%=      5-min Rain = 0
KTAS 141304Z 10005KT M05/M06 A3031 RMK A01 T10461058  RH  092%=      5-min Rain = 0
KTAS 141305Z 09005KT M05/M06 A3031 RMK A01 T10471058  RH  092%=      5-min Rain = 0
KTAS 141306Z 10004KT M05/M06 A3031 RMK A01 T10461057  RH  092%=      5-min Rain = 0
KTAS 141307Z 10005KT M05/M06 A3031 RMK A01 T10461057  RH  092%=      5-min Rain = 0
KTAS 141308Z 11004KT M05/M06 A3031 RMK A01 T10461057  RH  092%=      5-min Rain = 0
KTAS 141309Z 11004KT M05/M06 A3031 RMK A01 T10461057  RH  092%=      5-min Rain = 0
KTAS 141310Z 10005KT M05/M06 A3031 RMK A01 T10461057  RH  092%=      5-min Rain = 0
KTAS 141311Z 10005KT M05/M06 A3031 RMK A01 T10461057  RH  092%=      5-min Rain = 0
KTAS 141312Z 10005KT M05/M06 A3031 RMK A01 T10461057  RH  092%=      5-min Rain = 0
KTAS 141313Z 10005KT M05/M06 A3031 RMK A01 T10461057  RH  092%=      5-min Rain = 0
KTAS 141314Z 10006KT M05/M06 A3031 RMK A01 T10461057  RH  092%=      5-min Rain = 0
KTAS 141315Z 10005KT M05/M06 A3031 RMK A01 T10461058  RH  092%=      5-min Rain = 0
KTAS 141316Z 10005KT M05/M06 A3031 RMK A01 T10461058  RH  091%=      5-min Rain = 0
KTAS 141317Z 10005KT M05/M06 A3031 RMK A01 T10461058  RH  091%=      5-min Rain = 0
KTAS 141318Z 10005KT M05/M06 A3031 RMK A01 T10461058  RH  091%=      5-min Rain = 0
KTAS 141319Z 10005KT M05/M06 A3031 RMK A01 T10461058  RH  091%=      5-min Rain = 0
KTAS 141320Z 10004KT M05/M06 A3031 RMK A01 T10461059  RH  091%=      5-min Rain = 0
KTAS 141321Z 10005KT M05/M06 A3031 RMK A01 T10461058  RH  091%=      5-min Rain = 0
KTAS 141322Z 11004KT M05/M06 A3031 RMK A01 T10461058  RH  091%=      5-min Rain = 0
KTAS 141323Z 10004KT M05/M06 A3031 RMK A01 T10461058  RH  091%=      5-min Rain = 0
KTAS 141324Z 10004KT M05/M06 A3031 RMK A01 T10461058  RH  091%=      5-min Rain = 0
KTAS 141325Z 10004KT M05/M06 A3031 RMK A01 T10461058  RH  091%=      5-min Rain = 0
KTAS 141326Z 09004KT M05/M06 A3032 RMK A01 T10461058  RH  091%=      5-min Rain = 0
KTAS 141327Z 09004KT M05/M06 A3032 RMK A01 T10461058  RH  091%=      5-min Rain = 0
KTAS 141328Z 10004KT M05/M06 A3032 RMK A01 T10461058  RH  091%=      5-min Rain = 0
KTAS 141329Z 09005KT M05/M06 A3032 RMK A01 T10461058  RH  091%=      5-min Rain = 0
KTAS 141330Z 10004KT M05/M06 A3032 RMK A01 T10461058  RH  091%=      5-min Rain = 0
KTAS 141331Z 10004KT M05/M06 A3032 RMK A01 T10461057  RH  092%=      5-min Rain = 0
KTAS 141332Z 10004KT M05/M06 A3032 RMK A01 T10451057  RH  092%=      5-min Rain = 0
KTAS 141333Z 10005KT M05/M06 A3032 RMK A01 T10451057  RH  092%=      5-min Rain = 0
KTAS 141334Z 10005KT M05/M06 A3031 RMK A01 T10461058  RH  091%=      5-min Rain = 0
KTAS 141335Z 09005KT M05/M06 A3031 RMK A01 T10461058  RH  092%=      5-min Rain = 0
KTAS 141336Z 09005KT M05/M06 A3032 RMK A01 T10461058  RH  091%=      5-min Rain = 0
KTAS 141337Z 10004KT M05/M06 A3031 RMK A01 T10461058  RH  092%=      5-min Rain = 0
KTAS 141338Z 10004KT M05/M06 A3031 RMK A01 T10461058  RH  092%=      5-min Rain = 0
KTAS 141339Z 10004KT M05/M06 A3032 RMK A01 T10461058  RH  092%=      5-min Rain = 0
KTAS 141340Z 11004KT M05/M06 A3032 RMK A01 T10451057  RH  092%=      5-min Rain = 0
KTAS 141341Z 10004KT M05/M06 A3032 RMK A01 T10451057  RH  092%=      5-min Rain = 0
KTAS 141342Z 11004KT M05/M06 A3032 RMK A01 T10451057  RH  092%=      5-min Rain = 0
KTAS 141343Z 10003KT M05/M06 A3032 RMK A01 T10451057  RH  092%=      5-min Rain = 0
KTAS 141344Z 10003KT M05/M06 A3032 RMK A01 T10451057  RH  092%=      5-min Rain = 0
KTAS 141345Z 11004KT M05/M06 A3032 RMK A01 T10451056  RH  092%=      5-min Rain = 0
KTAS 141346Z 11004KT M04/M06 A3032 RMK A01 T10441056  RH  092%=      5-min Rain = 0
KTAS 141347Z 10005KT M05/M06 A3032 RMK A01 T10451056  RH  092%=      5-min Rain = 0
KTAS 141348Z 10004KT M05/M06 A3032 RMK A01 T10451056  RH  092%=      5-min Rain = 0
KTAS 141349Z 11003KT M05/M06 A3032 RMK A01 T10451056  RH  092%=      5-min Rain = 0
KTAS 141350Z 11003KT M05/M06 A3032 RMK A01 T10451056  RH  092%=      5-min Rain = 0
KTAS 141351Z 10003KT M04/M06 A3032 RMK A01 T10441055  RH  092%=      5-min Rain = 0
KTAS 141352Z 10003KT M04/M06 A3032 RMK A01 T10441055  RH  092%=      5-min Rain = 0
KTAS 141353Z 10003KT M04/M06 A3032 RMK A01 T10441056  RH  092%=      5-min Rain = 0
KTAS 141354Z 11002KT M05/M06 A3032 RMK A01 T10451056  RH  092%=      5-min Rain = 0
KTAS 141355Z 11003KT M04/M06 A3032 RMK A01 T10441055  RH  092%=      5-min Rain = 0
KTAS 141356Z 10003KT M04/M06 A3032 RMK A01 T10441055  RH  092%=      5-min Rain = 0
KTAS 141357Z 10003KT M04/M06 A3032 RMK A01 T10441055  RH  092%=      5-min Rain = 0
KTAS 141358Z 09004KT M04/M06 A3032 RMK A01 T10441055  RH  092%=      5-min Rain = 0
KTAS 141359Z 09004KT M04/M06 A3032 RMK A01 T10441055  RH  092%=      5-min Rain = 0
KTAS 141400Z 10004KT M04/M06 A3032 RMK A01 T10441055  RH  092%=      5-min Rain = 0
KTAS 141401Z 10004KT M04/M06 A3032 RMK A01 T10441055  RH  092%=      5-min Rain = 0
KTAS 141402Z 10004KT M04/M06 A3032 RMK A01 T10441055  RH  092%=      5-min Rain = 0
KTAS 141403Z 11004KT M04/M06 A3032 RMK A01 T10441055  RH  092%=      5-min Rain = 0
KTAS 141404Z 13004KT M04/M05 A3032 RMK A01 T10441054  RH  092%=      5-min Rain = 0
KTAS 141405Z 11004KT M04/M06 A3032 RMK A01 T10441055  RH  092%=      5-min Rain = 0
KTAS 141406Z 12005KT M04/M05 A3032 RMK A01 T10441054  RH  092%=      5-min Rain = 0
KTAS 141407Z 10004KT M04/M05 A3032 RMK A01 T10431054  RH  092%=      5-min Rain = 0
KTAS 141408Z 09005KT M04/M05 A3032 RMK A01 T10441054  RH  092%=      5-min Rain = 0
KTAS 141409Z 10005KT M04/M05 A3032 RMK A01 T10441054  RH  092%=      5-min Rain = 0
KTAS 141410Z 10004KT M04/M05 A3032 RMK A01 T10441054  RH  092%=      5-min Rain = 0
KTAS 141411Z 10006KT M04/M05 A3032 RMK A01 T10441054  RH  093%=      5-min Rain = 0
KTAS 141412Z 10005KT M04/M06 A3032 RMK A01 T10441055  RH  092%=      5-min Rain = 0
KTAS 141413Z 09005KT M05/M06 A3032 RMK A01 T10451056  RH  092%=      5-min Rain = 0
KTAS 141414Z 09004KT M05/M06 A3032 RMK A01 T10461056  RH  092%=      5-min Rain = 0
KTAS 141415Z 09005KT M05/M06 A3032 RMK A01 T10461056  RH  092%=      5-min Rain = 0
KTAS 141416Z 10004KT M05/M06 A3032 RMK A01 T10451055  RH  093%=      5-min Rain = 0
KTAS 141417Z 09005KT M05/M05 A3032 RMK A01 T10451054  RH  093%=      5-min Rain = 0
KTAS 141418Z 09004KT M05/M06 A3032 RMK A01 T10451055  RH  093%=      5-min Rain = 0
KTAS 141419Z 09004KT M05/M06 A3032 RMK A01 T10451055  RH  093%=      5-min Rain = 0
KTAS 141420Z 10004KT M05/M06 A3032 RMK A01 T10451055  RH  093%=      5-min Rain = 0
KTAS 141421Z 09004KT M04/M05 A3032 RMK A01 T10441053  RH  093%=      5-min Rain = 0
KTAS 141422Z 10004KT M04/M05 A3032 RMK A01 T10441053  RH  093%=      5-min Rain = 0
KTAS 141423Z 09004KT M04/M05 A3032 RMK A01 T10441054  RH  093%=      5-min Rain = 0
KTAS 141424Z 10005KT M04/M05 A3032 RMK A01 T10441053  RH  093%=      5-min Rain = 0
KTAS 141425Z 09004KT M04/M05 A3032 RMK A01 T10441053  RH  093%=      5-min Rain = 0
KTAS 141426Z 11003KT M04/M05 A3032 RMK A01 T10441053  RH  093%=      5-min Rain = 0
KTAS 141427Z 12003KT M04/M05 A3032 RMK A01 T10431052  RH  094%=      5-min Rain = 0
KTAS 141428Z 11004KT M04/M05 A3032 RMK A01 T10421051  RH  094%=      5-min Rain = 0
KTAS 141429Z 10005KT M04/M05 A3032 RMK A01 T10421051  RH  094%=      5-min Rain = 0
KTAS 141430Z 11005KT M04/M05 A3032 RMK A01 T10421051  RH  094%=      5-min Rain = 0
KTAS 141431Z 12003KT M04/M05 A3032 RMK A01 T10421051  RH  094%=      5-min Rain = 0
KTAS 141432Z 12004KT M04/M05 A3032 RMK A01 T10411050  RH  094%=      5-min Rain = 0
KTAS 141433Z 13004KT M04/M05 A3032 RMK A01 T10411050  RH  094%=      5-min Rain = 0
KTAS 141434Z 11003KT M04/M05 A3032 RMK A01 T10411050  RH  094%=      5-min Rain = 0
KTAS 141435Z 12004KT M04/M05 A3032 RMK A01 T10411049  RH  094%=      5-min Rain = 0
KTAS 141436Z 11004KT M04/M05 A3032 RMK A01 T10401048  RH  094%=      5-min Rain = 0
KTAS 141437Z 12004KT M04/M05 A3032 RMK A01 T10401048  RH  094%=      5-min Rain = 0
KTAS 141438Z 12004KT M04/M05 A3032 RMK A01 T10401049  RH  094%=      5-min Rain = 0
KTAS 141439Z 12004KT M04/M05 A3032 RMK A01 T10401048  RH  094%=      5-min Rain = 0
KTAS 141440Z 12004KT M04/M05 A3032 RMK A01 T10401048  RH  094%=      5-min Rain = 0
KTAS 141441Z 12004KT M04/M05 A3032 RMK A01 T10401048  RH  094%=      5-min Rain = 0
KTAS 141442Z 11003KT M04/M05 A3032 RMK A01 T10391047  RH  094%=      5-min Rain = 0
KTAS 141443Z 11003KT M04/M05 A3032 RMK A01 T10391047  RH  094%=      5-min Rain = 0
KTAS 141444Z 10004KT M04/M05 A3032 RMK A01 T10391047  RH  094%=      5-min Rain = 0
KTAS 141445Z 11004KT M04/M05 A3032 RMK A01 T10401047  RH  095%=      5-min Rain = 0
KTAS 141446Z 10005KT M04/M05 A3032 RMK A01 T10401047  RH  095%=      5-min Rain = 0
KTAS 141447Z 11004KT M04/M05 A3032 RMK A01 T10401047  RH  095%=      5-min Rain = 0
KTAS 141448Z 11004KT M04/M05 A3032 RMK A01 T10401047  RH  095%=      5-min Rain = 0
KTAS 141449Z 11003KT M04/M05 A3032 RMK A01 T10401047  RH  095%=      5-min Rain = 0
KTAS 141450Z 11004KT M04/M05 A3032 RMK A01 T10401047  RH  095%=      5-min Rain = 0
KTAS 141451Z 11004KT M04/M05 A3032 RMK A01 T10391046  RH  095%=      5-min Rain = 0
KTAS 141452Z 11005KT M04/M05 A3032 RMK A01 T10381045  RH  095%=      5-min Rain = 0
KTAS 141453Z 11005KT M04/M05 A3032 RMK A01 T10381045  RH  095%=      5-min Rain = 0
KTAS 141454Z 11005KT M04/M05 A3032 RMK A01 T10391046  RH  095%=      5-min Rain = 0
KTAS 141455Z 11004KT M04/M05 A3032 RMK A01 T10391046  RH  095%=      5-min Rain = 0
KTAS 141456Z 11004KT M04/M05 A3032 RMK A01 T10391046  RH  095%=      5-min Rain = 0
KTAS 141457Z 10004KT M04/M05 A3032 RMK A01 T10381045  RH  095%=      5-min Rain = 0
KTAS 141458Z 11005KT M04/M04 A3032 RMK A01 T10381044  RH  095%=      5-min Rain = 0
KTAS 141459Z 11005KT M04/M04 A3032 RMK A01 T10381044  RH  095%=      5-min Rain = 0
KTAS 141500Z 11005KT M04/M05 A3032 RMK A01 T10381045  RH  095%=      5-min Rain = 0
KTAS 141501Z 11004KT M04/M05 A3032 RMK A01 T10381045  RH  095%=      5-min Rain = 0
KTAS 141502Z 11005KT M04/M04 A3032 RMK A01 T10381044  RH  095%=      5-min Rain = 0
KTAS 141503Z 11004KT M04/M04 A3032 RMK A01 T10381044  RH  095%=      5-min Rain = 0
KTAS 141504Z 11004KT M04/M05 A3032 RMK A01 T10381045  RH  095%=      5-min Rain = 0
KTAS 141505Z 11005KT M04/M04 A3032 RMK A01 T10381044  RH  095%=      5-min Rain = 0
KTAS 141506Z 11004KT M04/M04 A3032 RMK A01 T10371043  RH  096%=      5-min Rain = 0
KTAS 141507Z 12005KT M04/M04 A3032 RMK A01 T10361042  RH  096%=      5-min Rain = 0
KTAS 141508Z 12005KT M04/M04 A3032 RMK A01 T10361042  RH  096%=      5-min Rain = 0
KTAS 141509Z 11004KT M04/M04 A3032 RMK A01 T10361042  RH  096%=      5-min Rain = 0
KTAS 141510Z 11005KT M04/M04 A3032 RMK A01 T10361042  RH  096%=      5-min Rain = 0
KTAS 141511Z 11005KT M04/M04 A3032 RMK A01 T10351041  RH  096%=      5-min Rain = 0
KTAS 141512Z 11004KT M04/M04 A3032 RMK A01 T10361042  RH  096%=      5-min Rain = 0
KTAS 141513Z 11004KT M04/M04 A3032 RMK A01 T10351041  RH  096%=      5-min Rain = 0
KTAS 141514Z 11005KT M04/M04 A3032 RMK A01 T10351041  RH  096%=      5-min Rain = 0
KTAS 141515Z 12004KT M04/M04 A3032 RMK A01 T10351041  RH  096%=      5-min Rain = 0
KTAS 141516Z 12005KT M04/M04 A3032 RMK A01 T10351041  RH  096%=      5-min Rain = 0
KTAS 141517Z 11005KT M04/M04 A3032 RMK A01 T10351041  RH  096%=      5-min Rain = 0
KTAS 141518Z 11005KT M04/M04 A3032 RMK A01 T10351041  RH  096%=      5-min Rain = 0
KTAS 141519Z 10005KT M04/M04 A3032 RMK A01 T10351040  RH  096%=      5-min Rain = 0
KTAS 141520Z 11004KT M04/M04 A3032 RMK A01 T10351040  RH  096%=      5-min Rain = 0
KTAS 141521Z 11004KT M04/M04 A3032 RMK A01 T10351040  RH  096%=      5-min Rain = 0
KTAS 141522Z 11006KT M04/M04 A3032 RMK A01 T10351040  RH  096%=      5-min Rain = 0
KTAS 141523Z 11006KT M04/M04 A3032 RMK A01 T10351040  RH  096%=      5-min Rain = 0
KTAS 141524Z 11006KT M04/M04 A3032 RMK A01 T10351040  RH  096%=      5-min Rain = 0
KTAS 141525Z 12005KT M04/M04 A3032 RMK A01 T10351040  RH  096%=      5-min Rain = 0
KTAS 141526Z 11005KT M03/M04 A3032 RMK A01 T10341039  RH  096%=      5-min Rain = 0
KTAS 141527Z 11006KT M03/M04 A3032 RMK A01 T10341039  RH  096%=      5-min Rain = 0
KTAS 141528Z 11005KT M03/M04 A3032 RMK A01 T10341038  RH  096%=      5-min Rain = 0
KTAS 141529Z 11005KT M03/M04 A3032 RMK A01 T10341039  RH  096%=      5-min Rain = 0
KTAS 141530Z 12005KT M03/M04 A3032 RMK A01 T10341038  RH  096%=      5-min Rain = 0
KTAS 141531Z 12005KT M03/M04 A3032 RMK A01 T10331038  RH  097%=      5-min Rain = 0
KTAS 141532Z 11004KT M03/M04 A3032 RMK A01 T10331037  RH  097%=      5-min Rain = 0
KTAS 141533Z 11005KT M03/M04 A3032 RMK A01 T10331037  RH  097%=      5-min Rain = 0
KTAS 141534Z 11005KT M03/M04 A3032 RMK A01 T10331037  RH  097%=      5-min Rain = 0
KTAS 141535Z 11005KT M03/M04 A3032 RMK A01 T10331037  RH  097%=      5-min Rain = 0
KTAS 141536Z 12005KT M03/M04 A3032 RMK A01 T10331037  RH  097%=      5-min Rain = 0
KTAS 141537Z 12003KT M03/M04 A3032 RMK A01 T10331038  RH  097%=      5-min Rain = 0
KTAS 141538Z 09004KT M03/M04 A3032 RMK A01 T10331038  RH  097%=      5-min Rain = 0
KTAS 141539Z 10005KT M03/M04 A3032 RMK A01 T10331038  RH  097%=      5-min Rain = 0
KTAS 141540Z 11004KT M04/M04 A3032 RMK A01 T10351040  RH  096%=      5-min Rain = 0
KTAS 141541Z 11005KT M04/M04 A3032 RMK A01 T10351039  RH  096%=      5-min Rain = 0
KTAS 141542Z 10006KT M04/M04 A3032 RMK A01 T10351040  RH  096%=      5-min Rain = 0
KTAS 141543Z 09005KT M04/M04 A3032 RMK A01 T10351040  RH  096%=      5-min Rain = 0
KTAS 141544Z 09005KT M04/M04 A3032 RMK A01 T10351039  RH  097%=      5-min Rain = 0
KTAS 141545Z 10005KT M03/M04 A3032 RMK A01 T10341038  RH  097%=      5-min Rain = 0
KTAS 141546Z 12005KT M03/M04 A3032 RMK A01 T10331037  RH  097%=      5-min Rain = 0
KTAS 141547Z 12005KT M03/M04 A3032 RMK A01 T10331038  RH  097%=      5-min Rain = 0
KTAS 141548Z 12005KT M03/M04 A3032 RMK A01 T10321037  RH  097%=      5-min Rain = 0
KTAS 141549Z 12005KT M03/M04 A3032 RMK A01 T10321036  RH  097%=      5-min Rain = 0
KTAS 141550Z 13005KT M03/M04 A3032 RMK A01 T10311035  RH  097%=      5-min Rain = 0
KTAS 141551Z 12008KT M03/M04 A3032 RMK A01 T10311035  RH  097%=      5-min Rain = 0
KTAS 141552Z 13007KT M03/M03 A3032 RMK A01 T10301034  RH  097%=      5-min Rain = 0
KTAS 141553Z 14007KT M03/M03 A3032 RMK A01 T10301034  RH  097%=      5-min Rain = 0
KTAS 141554Z 12005KT M03/M03 A3032 RMK A01 T10301034  RH  097%=      5-min Rain = 0
KTAS 141555Z 11005KT M03/M03 A3032 RMK A01 T10301034  RH  097%=      5-min Rain = 0
KTAS 141556Z 10005KT M03/M04 A3032 RMK A01 T10311035  RH  097%=      5-min Rain = 0
KTAS 141557Z 09006KT M03/M04 A3032 RMK A01 T10311035  RH  097%=      5-min Rain = 0
KTAS 141558Z 11005KT M03/M04 A3032 RMK A01 T10311035  RH  097%=      5-min Rain = 0
KTAS 141559Z 12004KT M03/M04 A3032 RMK A01 T10311035  RH  097%=      5-min Rain = 0
KTAS 141600Z 12005KT M03/M04 A3032 RMK A01 T10311036  RH  097%=      5-min Rain = 0
KTAS 141601Z 11004KT M03/M04 A3032 RMK A01 T10311036  RH  097%=      5-min Rain = 0
KTAS 141602Z 12006KT M03/M04 A3032 RMK A01 T10311035  RH  097%=      5-min Rain = 0
KTAS 141603Z 13008KT M03/M03 A3032 RMK A01 T10291033  RH  097%=      5-min Rain = 0
KTAS 141604Z 13009KT M03/M03 A3032 RMK A01 T10291033  RH  097%=      5-min Rain = 0
KTAS 141605Z 12007KT M03/M03 A3032 RMK A01 T10281032  RH  097%=      5-min Rain = 0
KTAS 141606Z 13009KT M03/M03 A3032 RMK A01 T10281032  RH  097%=      5-min Rain = 0
KTAS 141607Z 13007KT M03/M03 A3032 RMK A01 T10271031  RH  097%=      5-min Rain = 0
KTAS 141608Z 13006KT M03/M03 A3032 RMK A01 T10261030  RH  097%=      5-min Rain = 0
KTAS 141609Z 13008KT M03/M03 A3032 RMK A01 T10251029  RH  097%=      5-min Rain = 0
KTAS 141610Z 13009KT M03/M03 A3032 RMK A01 T10261030  RH  097%=      5-min Rain = 0
KTAS 141611Z 13008KT M03/M03 A3032 RMK A01 T10271031  RH  097%=      5-min Rain = 0
KTAS 141612Z 15008KT M03/M03 A3032 RMK A01 T10261030  RH  097%=      5-min Rain = 0
KTAS 141613Z 14008KT M03/M03 A3032 RMK A01 T10261030  RH  097%=      5-min Rain = 0
KTAS 141614Z 13007KT M03/M03 A3032 RMK A01 T10261030  RH  097%=      5-min Rain = 0
KTAS 141615Z 12008KT M03/M03 A3032 RMK A01 T10261030  RH  097%=      5-min Rain = 0
KTAS 141616Z 13009KT M03/M03 A3032 RMK A01 T10261030  RH  097%=      5-min Rain = 0
KTAS 141617Z 13008KT M03/M03 A3032 RMK A01 T10261030  RH  097%=      5-min Rain = 0
KTAS 141618Z 13009KT M03/M03 A3032 RMK A01 T10261030  RH  097%=      5-min Rain = 0
KTAS 141619Z 14007KT M03/M03 A3032 RMK A01 T10261030  RH  097%=      5-min Rain = 0
KTAS 141620Z 14006KT M03/M03 A3032 RMK A01 T10261030  RH  097%=      5-min Rain = 0
KTAS 141621Z 14008KT M03/M03 A3032 RMK A01 T10251029  RH  097%=      5-min Rain = 0
KTAS 141622Z 13008KT M03/M03 A3032 RMK A01 T10251029  RH  097%=      5-min Rain = 0
KTAS 141623Z 14008KT M03/M03 A3032 RMK A01 T10251029  RH  097%=      5-min Rain = 0
KTAS 141624Z 12007KT M03/M03 A3032 RMK A01 T10251029  RH  097%=      5-min Rain = 0
KTAS 141625Z 13009KT M03/M03 A3032 RMK A01 T10251029  RH  097%=      5-min Rain = 0
KTAS 141626Z 14007KT M03/M03 A3032 RMK A01 T10261030  RH  097%=      5-min Rain = 0
KTAS 141627Z 14007KT M03/M03 A3032 RMK A01 T10251029  RH  097%=      5-min Rain = 0
KTAS 141628Z 14006KT M03/M03 A3032 RMK A01 T10251028  RH  097%=      5-min Rain = 0
KTAS 141629Z 14007KT M03/M03 A3032 RMK A01 T10251029  RH  097%=      5-min Rain = 0
KTAS 141630Z 13007KT M03/M03 A3032 RMK A01 T10251029  RH  097%=      5-min Rain = 0
KTAS 141631Z 13009KT M03/M03 A3032 RMK A01 T10251029  RH  097%=      5-min Rain = 0
KTAS 141632Z 13009KT M03/M03 A3032 RMK A01 T10251029  RH  097%=      5-min Rain = 0
KTAS 141633Z 14007KT M02/M03 A3032 RMK A01 T10241028  RH  097%=      5-min Rain = 0
KTAS 141634Z 14007KT M02/M03 A3032 RMK A01 T10241028  RH  097%=      5-min Rain = 0
KTAS 141635Z 14008KT M02/M03 A3032 RMK A01 T10241028  RH  097%=      5-min Rain = 0
KTAS 141636Z 14009KT M02/M03 A3032 RMK A01 T10241028  RH  097%=      5-min Rain = 0
KTAS 141637Z 14009KT M03/M03 A3032 RMK A01 T10251029  RH  097%=      5-min Rain = 0
KTAS 141638Z 14008KT M03/M03 A3032 RMK A01 T10251029  RH  097%=      5-min Rain = 0
KTAS 141639Z 14009KT M03/M03 A3032 RMK A01 T10251029  RH  097%=      5-min Rain = 0
KTAS 141640Z 15008KT M02/M03 A3032 RMK A01 T10241028  RH  097%=      5-min Rain = 0
KTAS 141641Z 15008KT M02/M03 A3032 RMK A01 T10241027  RH  097%=      5-min Rain = 0
KTAS 141642Z 15010KT M02/M03 A3032 RMK A01 T10231027  RH  097%=      5-min Rain = 0
KTAS 141643Z 16008KT M02/M03 A3032 RMK A01 T10241028  RH  097%=      5-min Rain = 0
KTAS 141644Z 15008KT M02/M03 A3032 RMK A01 T10241028  RH  097%=      5-min Rain = 0
KTAS 141645Z 15010KT M02/M03 A3032 RMK A01 T10241028  RH  097%=      5-min Rain = 0
KTAS 141646Z 16010KT M02/M03 A3032 RMK A01 T10241028  RH  097%=      5-min Rain = 0
KTAS 141647Z 15008KT M02/M03 A3032 RMK A01 T10241028  RH  097%=      5-min Rain = 0
KTAS 141648Z 15007KT M02/M03 A3032 RMK A01 T10231027  RH  097%=      5-min Rain = 0
KTAS 141649Z 14007KT M02/M03 A3032 RMK A01 T10221026  RH  097%=      5-min Rain = 0
KTAS 141650Z 13009KT M02/M03 A3032 RMK A01 T10221025  RH  097%=      5-min Rain = 0
KTAS 141651Z 14008KT M02/M03 A3032 RMK A01 T10221026  RH  097%=      5-min Rain = 0
KTAS 141652Z 13008KT M02/M03 A3032 RMK A01 T10231027  RH  097%=      5-min Rain = 0
KTAS 141653Z 14010KT M02/M03 A3031 RMK A01 T10231027  RH  097%=      5-min Rain = 0
KTAS 141654Z 15007KT M02/M03 A3031 RMK A01 T10241027  RH  097%=      5-min Rain = 0
KTAS 141655Z 14008KT M02/M03 A3031 RMK A01 T10231027  RH  097%=      5-min Rain = 0
KTAS 141656Z 14007KT M02/M03 A3031 RMK A01 T10221026  RH  097%=      5-min Rain = 0
KTAS 141657Z 14008KT M02/M03 A3031 RMK A01 T10221026  RH  097%=      5-min Rain = 0
KTAS 141658Z 14007KT M02/M03 A3031 RMK A01 T10211025  RH  097%=      5-min Rain = 0
KTAS 141659Z 14008KT M02/M03 A3031 RMK A01 T10221026  RH  097%=      5-min Rain = 0
KTAS 141700Z 15008KT M02/M03 A3031 RMK A01 T10221026  RH  097%=      5-min Rain = 0
KTAS 141701Z 15009KT M02/M03 A3031 RMK A01 T10221025  RH  097%=      5-min Rain = 0
KTAS 141702Z 15009KT M02/M03 A3031 RMK A01 T10211025  RH  097%=      5-min Rain = 0
KTAS 141703Z 15009KT M02/M03 A3031 RMK A01 T10221025  RH  097%=      5-min Rain = 0
KTAS 141704Z 15009KT M02/M03 A3031 RMK A01 T10221026  RH  097%=      5-min Rain = 0
KTAS 141705Z 15007KT M02/M03 A3031 RMK A01 T10221025  RH  097%=      5-min Rain = 0
KTAS 141706Z 16009KT M02/M03 A3031 RMK A01 T10211025  RH  097%=      5-min Rain = 0
KTAS 141707Z 15008KT M02/M02 A3031 RMK A01 T10211024  RH  097%=      5-min Rain = 0
KTAS 141708Z 16009KT M02/M03 A3031 RMK A01 T10211025  RH  097%=      5-min Rain = 0
KTAS 141709Z 16009KT M02/M03 A3031 RMK A01 T10211025  RH  097%=      5-min Rain = 0
KTAS 141710Z 16008KT M02/M02 A3031 RMK A01 T10211024  RH  097%=      5-min Rain = 0
KTAS 141711Z 16009KT M02/M02 A3031 RMK A01 T10201024  RH  097%=      5-min Rain = 0
KTAS 141712Z 14007KT M02/M02 A3031 RMK A01 T10201023  RH  097%=      5-min Rain = 0
KTAS 141713Z 15009KT M02/M02 A3031 RMK A01 T10181022  RH  097%=      5-min Rain = 0
KTAS 141714Z 15010KT M02/M02 A3031 RMK A01 T10191023  RH  097%=      5-min Rain = 0
KTAS 141715Z 15008KT M02/M02 A3031 RMK A01 T10201024  RH  097%=      5-min Rain = 0
KTAS 141716Z 15008KT M02/M02 A3031 RMK A01 T10201024  RH  097%=      5-min Rain = 0
KTAS 141717Z 14007KT M02/M02 A3031 RMK A01 T10191023  RH  097%=      5-min Rain = 0
KTAS 141718Z 15007KT M02/M02 A3031 RMK A01 T10181022  RH  097%=      5-min Rain = 0
KTAS 141719Z 15007KT M02/M02 A3031 RMK A01 T10181022  RH  097%=      5-min Rain = 0
KTAS 141720Z 14006KT M02/M02 A3031 RMK A01 T10181022  RH  097%=      5-min Rain = 0
KTAS 141721Z 15007KT M02/M02 A3031 RMK A01 T10171021  RH  097%=      5-min Rain = 0
KTAS 141722Z 14008KT M02/M02 A3031 RMK A01 T10171021  RH  097%=      5-min Rain = 0
KTAS 141723Z 15008KT M02/M02 A3031 RMK A01 T10181022  RH  097%=      5-min Rain = 0
KTAS 141724Z 15006KT M02/M02 A3031 RMK A01 T10181022  RH  097%=      5-min Rain = 0
KTAS 141725Z 15007KT M02/M02 A3031 RMK A01 T10171021  RH  097%=      5-min Rain = 0
KTAS 141726Z 15008KT M02/M02 A3031 RMK A01 T10161020  RH  097%=      5-min Rain = 0
KTAS 141727Z 16008KT M02/M02 A3031 RMK A01 T10161021  RH  097%=      5-min Rain = 0
KTAS 141728Z 15006KT M02/M02 A303 RMK A01 T10161021  RH  097%=      5-min Rain = 0
KTAS 141729Z 15009KT M02/M02 A303 RMK A01 T10151019  RH  097%=      5-min Rain = 0
KTAS 141730Z 15008KT M02/M02 A303 RMK A01 T10151019  RH  097%=      5-min Rain = 0
KTAS 141731Z 14010KT M02/M02 A303 RMK A01 T10151020  RH  097%=      5-min Rain = 0
KTAS 141732Z 15009KT M02/M02 A303 RMK A01 T10151020  RH  097%=      5-min Rain = 0
KTAS 141733Z 15009KT M02/M02 A303 RMK A01 T10151020  RH  097%=      5-min Rain = 0
KTAS 141734Z 15007KT M02/M02 A303 RMK A01 T10151020  RH  097%=      5-min Rain = 0
KTAS 141735Z 15009KT M01/M02 A303 RMK A01 T10141019  RH  097%=      5-min Rain = 0
KTAS 141736Z 16009KT M01/M02 A303 RMK A01 T10141019  RH  096%=      5-min Rain = 0
KTAS 141737Z 16009KT M02/M02 A303 RMK A01 T10151020  RH  096%=      5-min Rain = 0
KTAS 141738Z 16008KT M01/M02 A303 RMK A01 T10141019  RH  096%=      5-min Rain = 0
KTAS 141739Z 15007KT M01/M02 A303 RMK A01 T10131018  RH  096%=      5-min Rain = 0
KTAS 141740Z 14010KT M01/M02 A303 RMK A01 T10131018  RH  096%=      5-min Rain = 0
KTAS 141741Z 15009KT M01/M02 A303 RMK A01 T10131018  RH  096%=      5-min Rain = 0
KTAS 141742Z 15008KT M01/M02 A303 RMK A01 T10131019  RH  096%=      5-min Rain = 0
KTAS 141743Z 13008KT M01/M02 A303 RMK A01 T10131019  RH  096%=      5-min Rain = 0
KTAS 141744Z 15007KT M01/M02 A303 RMK A01 T10131019  RH  096%=      5-min Rain = 0
KTAS 141745Z 15008KT M01/M02 A303 RMK A01 T10131019  RH  096%=      5-min Rain = 0
KTAS 141746Z 15007KT M01/M02 A303 RMK A01 T10131019  RH  096%=      5-min Rain = 0
KTAS 141747Z 15008KT M01/M02 A303 RMK A01 T10121018  RH  096%=      5-min Rain = 0
KTAS 141748Z 16008KT M01/M02 A303 RMK A01 T10111017  RH  096%=      5-min Rain = 0
KTAS 141749Z 17009KT M01/M02 A303 RMK A01 T10101016  RH  096%=      5-min Rain = 0
KTAS 141750Z 16011KT M01/M02 A303 RMK A01 T10111017  RH  095%=      5-min Rain = 0
KTAS 141751Z 17009KT M01/M02 A303 RMK A01 T10111018  RH  095%=      5-min Rain = 0
KTAS 141752Z 16009KT M01/M02 A303 RMK A01 T10111018  RH  095%=      5-min Rain = 0
KTAS 141753Z 16010KT M01/M02 A303 RMK A01 T10101017  RH  095%=      5-min Rain = 0
KTAS 141754Z 16010KT M01/M02 A303 RMK A01 T10111018  RH  095%=      5-min Rain = 0
KTAS 141755Z 15010KT M01/M02 A3029 RMK A01 T10101018  RH  095%=      5-min Rain = 0
KTAS 141756Z 16007KT M01/M02 A3029 RMK A01 T10101018  RH  095%=      5-min Rain = 0
KTAS 141757Z 15006KT M01/M02 A3029 RMK A01 T10101017  RH  095%=      5-min Rain = 0
KTAS 141758Z 16008KT M01/M02 A3029 RMK A01 T10091016  RH  095%=      5-min Rain = 0
KTAS 141759Z 16009KT M01/M02 A3029 RMK A01 T10091017  RH  095%=      5-min Rain = 0
KTAS 141800Z 16010KT M01/M02 A3029 RMK A01 T10101018  RH  094%=      5-min Rain = 0
KTAS 141801Z 15011KT M01/M02 A3029 RMK A01 T10101018  RH  094%=      5-min Rain = 0
KTAS 141802Z 17009KT M01/M02 A3029 RMK A01 T10101018  RH  094%=      5-min Rain = 0
KTAS 141803Z 16007KT M01/M02 A3029 RMK A01 T10091017  RH  094%=      5-min Rain = 0
KTAS 141804Z 16007KT M01/M02 A3029 RMK A01 T10071015  RH  094%=      5-min Rain = 0
KTAS 141805Z 16010KT M01/M02 A303 RMK A01 T10071015  RH  094%=      5-min Rain = 0
KTAS 141806Z 17007KT M01/M02 A303 RMK A01 T10081017  RH  093%=      5-min Rain = 0
KTAS 141807Z 16008KT M01/M02 A303 RMK A01 T10081018  RH  093%=      5-min Rain = 0
KTAS 141808Z 16009KT M01/M02 A303 RMK A01 T10081018  RH  093%=      5-min Rain = 0
KTAS 141809Z 16009KT M01/M02 A303 RMK A01 T10071017  RH  093%=      5-min Rain = 0
KTAS 141810Z 16009KT M01/M02 A3029 RMK A01 T10071017  RH  093%=      5-min Rain = 0
KTAS 141811Z 15009KT M01/M02 A3029 RMK A01 T10081018  RH  093%=      5-min Rain = 0
KTAS 141812Z 17009KT M01/M02 A3029 RMK A01 T10081018  RH  093%=      5-min Rain = 0
KTAS 141813Z 17011KT M01/M02 A3029 RMK A01 T10081018  RH  093%=      5-min Rain = 0
KTAS 141814Z 16009KT M01/M02 A3029 RMK A01 T10071018  RH  093%=      5-min Rain = 0
KTAS 141815Z 16009KT M01/M02 A3029 RMK A01 T10071018  RH  093%=      5-min Rain = 0
KTAS 141816Z 16009KT M01/M02 A3029 RMK A01 T10071018  RH  092%=      5-min Rain = 0
KTAS 141817Z 17010KT M01/M02 A3029 RMK A01 T10071018  RH  092%=      5-min Rain = 0
KTAS 141818Z 17010KT M01/M02 A3029 RMK A01 T10071019  RH  092%=      5-min Rain = 0
KTAS 141819Z 16008KT M01/M02 A3029 RMK A01 T10071019  RH  092%=      5-min Rain = 0
KTAS 141820Z 17009KT M01/M02 A3029 RMK A01 T10061018  RH  092%=      5-min Rain = 0
KTAS 141821Z 18009KT M01/M02 A3029 RMK A01 T10061017  RH  092%=      5-min Rain = 0
KTAS 141822Z 18009KT M01/M02 A3029 RMK A01 T10061018  RH  092%=      5-min Rain = 0
KTAS 141823Z 17011KT M01/M02 A3029 RMK A01 T10061018  RH  092%=      5-min Rain = 0
KTAS 141824Z 18010KT M01/M02 A3029 RMK A01 T10061018  RH  091%=      5-min Rain = 0
KTAS 141825Z 18009KT M01/M02 A3029 RMK A01 T10061018  RH  091%=      5-min Rain = 0
KTAS 141826Z 17008KT M01/M02 A3029 RMK A01 T10051018  RH  091%=      5-min Rain = 0
KTAS 141827Z 18010KT M00/M02 A3029 RMK A01 T10041017  RH  091%=      5-min Rain = 0
KTAS 141828Z 17010KT M00/M02 A3029 RMK A01 T10041017  RH  091%=      5-min Rain = 0
KTAS 141829Z 17010KT M00/M02 A3029 RMK A01 T10041018  RH  091%=      5-min Rain = 0
KTAS 141830Z 17011KT M00/M02 A3029 RMK A01 T10041018  RH  091%=      5-min Rain = 0
KTAS 141831Z 19009KT M00/M02 A3029 RMK A01 T10031016  RH  091%=      5-min Rain = 0
KTAS 141832Z 19010KT M00/M02 A3029 RMK A01 T10021016  RH  090%=      5-min Rain = 0
KTAS 141833Z 19009KT M00/M02 A3029 RMK A01 T10021016  RH  090%=      5-min Rain = 0
KTAS 141834Z 17010KT M00/M02 A3029 RMK A01 T10011016  RH  090%=      5-min Rain = 0
KTAS 141835Z 17009KT M00/M02 A3029 RMK A01 T10021018  RH  089%=      5-min Rain = 0
KTAS 141836Z 18010KT M00/M02 A3029 RMK A01 T10021018  RH  089%=      5-min Rain = 0
KTAS 141837Z 18011KT M00/M02 A3028 RMK A01 T10011017  RH  089%=      5-min Rain = 0
KTAS 141838Z 17010KT M00/M02 A3028 RMK A01 T10021019  RH  089%=      5-min Rain = 0
KTAS 141839Z 17009KT M00/M02 A3028 RMK A01 T10021018  RH  089%=      5-min Rain = 0
KTAS 141840Z 18010KT M00/M02 A3028 RMK A01 T10021018  RH  089%=      5-min Rain = 0
KTAS 141841Z 17009KT M00/M02 A3028 RMK A01 T10021018  RH  089%=      5-min Rain = 0
KTAS 141842Z 17010KT M00/M02 A3028 RMK A01 T10011017  RH  089%=      5-min Rain = 0
KTAS 141843Z 17009KT M00/M02 A3028 RMK A01 T10021018  RH  089%=      5-min Rain = 0
KTAS 141844Z 17009KT M00/M02 A3028 RMK A01 T10011017  RH  089%=      5-min Rain = 0
KTAS 141845Z 16009KT M00/M02 A3028 RMK A01 T10021017  RH  089%=      5-min Rain = 0
KTAS 141846Z 18009KT M00/M02 A3028 RMK A01 T10011017  RH  089%=      5-min Rain = 0
KTAS 141847Z 18011KT M00/M02 A3028 RMK A01 T10011017  RH  089%=      5-min Rain = 0
KTAS 141848Z 18009KT M00/M02 A3028 RMK A01 T10021018  RH  089%=      5-min Rain = 0
KTAS 141849Z 17010KT M00/M02 A3028 RMK A01 T10011017  RH  089%=      5-min Rain = 0
KTAS 141850Z 17011KT M00/M02 A3028 RMK A01 T10011017  RH  089%=      5-min Rain = 0
KTAS 141851Z 17010KT M00/M02 A3028 RMK A01 T10011017  RH  089%=      5-min Rain = 0
KTAS 141852Z 18010KT 00/02 A3028 RMK A01 T00-00-16  RH  089%=      5-min Rain = 0
KTAS 141853Z 18009KT 00/02 A3028 RMK A01 T00000-16  RH  089%=      5-min Rain = 0
KTAS 141854Z 18009KT M00/M02 A3028 RMK A01 T10011018  RH  088%=      5-min Rain = 0
KTAS 141855Z 18009KT M00/M02 A3028 RMK A01 T10011018  RH  088%=      5-min Rain = 0
KTAS 141856Z 18009KT 00/02 A3028 RMK A01 T00-00-17  RH  089%=      5-min Rain = 0
KTAS 141857Z 19009KT 00/02 A3028 RMK A01 T00000-16  RH  089%=      5-min Rain = 0
KTAS 141858Z 19008KT 00/02 A3027 RMK A01 T00000-17  RH  088%=      5-min Rain = 0
KTAS 141859Z 17010KT 00/02 A3027 RMK A01 T00000-17  RH  088%=      5-min Rain = 0
KTAS 141900Z 16007KT 00/02 A3027 RMK A01 T00-00-18  RH  088%=      5-min Rain = 0
KTAS 141901Z 17010KT 00/02 A3027 RMK A01 T00-00-17  RH  088%=      5-min Rain = 0
KTAS 141902Z 16010KT M00/M02 A3027 RMK A01 T10011018  RH  088%=      5-min Rain = 0
KTAS 141903Z 17009KT M00/M02 A3027 RMK A01 T10011018  RH  088%=      5-min Rain = 0
KTAS 141904Z 17009KT M00/M02 A3027 RMK A01 T10011018  RH  088%=      5-min Rain = 0
KTAS 141905Z 17010KT 00/02 A3027 RMK A01 T00-00-17  RH  089%=      5-min Rain = 0
KTAS 141906Z 18011KT 00/02 A3027 RMK A01 T00-00-17  RH  088%=      5-min Rain = 0
KTAS 141907Z 17011KT M00/M02 A3027 RMK A01 T10011018  RH  088%=      5-min Rain = 0
KTAS 141908Z 17010KT M00/M02 A3027 RMK A01 T10011017  RH  088%=      5-min Rain = 0
KTAS 141909Z 16009KT M00/M02 A3027 RMK A01 T10011018  RH  088%=      5-min Rain = 0
KTAS 141910Z 16009KT 00/02 A3027 RMK A01 T00000-17  RH  088%=      5-min Rain = 0
KTAS 141911Z 17011KT 00/M02 A3027 RMK A01 T00011015  RH  089%=      5-min Rain = 0
KTAS 141912Z 16011KT 00/M02 A3027 RMK A01 T00021016  RH  088%=      5-min Rain = 0
KTAS 141913Z 17010KT 00/M02 A3027 RMK A01 T00011017  RH  088%=      5-min Rain = 0
KTAS 141914Z 18010KT 00/M02 A3027 RMK A01 T00021016  RH  088%=      5-min Rain = 0
KTAS 141915Z 18011KT 00/M02 A3027 RMK A01 T00021017  RH  087%=      5-min Rain = 0
KTAS 141916Z 17011KT 00/M02 A3027 RMK A01 T00011018  RH  087%=      5-min Rain = 0
KTAS 141917Z 19010KT 00/02 A3027 RMK A01 T00000-17  RH  088%=      5-min Rain = 0
KTAS 141918Z 18011KT 00/M02 A3027 RMK A01 T00011017  RH  088%=      5-min Rain = 0
KTAS 141919Z 17011KT 00/M02 A3027 RMK A01 T00011017  RH  088%=      5-min Rain = 0
KTAS 141920Z 16011KT 00/M02 A3026 RMK A01 T00011017  RH  088%=      5-min Rain = 0
KTAS 141921Z 17011KT 00/02 A3026 RMK A01 T00000-18  RH  088%=      5-min Rain = 0
KTAS 141922Z 19010KT 00/M02 A3026 RMK A01 T00011017  RH  088%=      5-min Rain = 0
KTAS 141923Z 18010KT 00/M02 A3026 RMK A01 T00011016  RH  088%=      5-min Rain = 0
KTAS 141924Z 17010KT 00/M02 A3026 RMK A01 T00021016  RH  088%=      5-min Rain = 0
KTAS 141925Z 18010KT 00/M02 A3026 RMK A01 T00021016  RH  088%=      5-min Rain = 0
KTAS 141926Z 16008KT 00/M02 A3026 RMK A01 T00021015  RH  088%=      5-min Rain = 0
KTAS 141927Z 17009KT 00/M02 A3026 RMK A01 T00021016  RH  088%=      5-min Rain = 0
KTAS 141928Z 18010KT 00/M02 A3026 RMK A01 T00021016  RH  087%=      5-min Rain = 0
KTAS 141929Z 17011KT 00/M02 A3026 RMK A01 T00021016  RH  088%=      5-min Rain = 0
KTAS 141930Z 18011KT 00/M02 A3026 RMK A01 T00021017  RH  087%=      5-min Rain = 0
KTAS 141931Z 16010KT 00/M02 A3026 RMK A01 T00021017  RH  087%=      5-min Rain = 0
KTAS 141932Z 18009KT 00/M02 A3026 RMK A01 T00021016  RH  088%=      5-min Rain = 0
KTAS 141933Z 17010KT 00/M02 A3026 RMK A01 T00021016  RH  088%=      5-min Rain = 0
KTAS 141934Z 16010KT 00/M02 A3026 RMK A01 T00021016  RH  088%=      5-min Rain = 0
KTAS 141935Z 18009KT 00/M02 A3026 RMK A01 T00031016  RH  088%=      5-min Rain = 0
KTAS 141936Z 18009KT 00/M02 A3025 RMK A01 T00031016  RH  087%=      5-min Rain = 0
KTAS 141937Z 18010KT 00/M02 A3025 RMK A01 T00031016  RH  087%=      5-min Rain = 0
KTAS 141938Z 15010KT 00/M02 A3025 RMK A01 T00021016  RH  087%=      5-min Rain = 0
KTAS 141939Z 16010KT 00/M02 A3025 RMK A01 T00031015  RH  088%=      5-min Rain = 0
KTAS 141940Z 16010KT 00/M02 A3025 RMK A01 T00041015  RH  087%=      5-min Rain = 0
KTAS 141941Z 17012KT 00/M02 A3025 RMK A01 T00031016  RH  087%=      5-min Rain = 0
KTAS 141942Z 17012KT 00/M02 A3025 RMK A01 T00021017  RH  087%=      5-min Rain = 0
KTAS 141943Z 17009KT 00/M02 A3025 RMK A01 T00021017  RH  087%=      5-min Rain = 0
KTAS 141944Z 18008KT 00/M02 A3025 RMK A01 T00021017  RH  088%=      5-min Rain = 0
KTAS 141945Z 17010KT 00/M02 A3025 RMK A01 T00021015  RH  088%=      5-min Rain = 0
KTAS 141946Z 18009KT 00/M02 A3025 RMK A01 T00021016  RH  088%=      5-min Rain = 0
KTAS 141947Z 17012KT 00/M01 A3025 RMK A01 T00031014  RH  088%=      5-min Rain = 0
KTAS 141948Z 17011KT 00/M02 A3025 RMK A01 T00031015  RH  088%=      5-min Rain = 0
KTAS 141949Z 16010KT 00/M02 A3025 RMK A01 T00031015  RH  087%=      5-min Rain = 0
KTAS 141950Z 18007KT 00/M02 A3025 RMK A01 T00041015  RH  087%=      5-min Rain = 0
KTAS 141951Z 18008KT 00/M02 A3025 RMK A01 T00041015  RH  087%=      5-min Rain = 0
KTAS 141952Z 19009KT 00/M02 A3025 RMK A01 T00031016  RH  087%=      5-min Rain = 0
KTAS 141953Z 18007KT 00/M02 A3025 RMK A01 T00041015  RH  088%=      5-min Rain = 0
KTAS 141954Z 17008KT 01/M01 A3025 RMK A01 T00051014  RH  088%=      5-min Rain = 0
KTAS 141955Z 18010KT 01/M01 A3025 RMK A01 T00051013  RH  087%=      5-min Rain = 0
KTAS 141956Z 18012KT 01/M01 A3025 RMK A01 T00051014  RH  087%=      5-min Rain = 0
KTAS 141957Z 18009KT 00/M02 A3025 RMK A01 T00041016  RH  087%=      5-min Rain = 0
KTAS 141958Z 18008KT 00/M01 A3024 RMK A01 T00041014  RH  088%=      5-min Rain = 0
KTAS 141959Z 19010KT 00/M01 A3024 RMK A01 T00041014  RH  087%=      5-min Rain = 0
KTAS 142000Z 18008KT 00/M02 A3024 RMK A01 T00041015  RH  087%=      5-min Rain = 0
KTAS 142001Z 18009KT 01/M01 A3024 RMK A01 T00051013  RH  088%=      5-min Rain = 0
KTAS 142002Z 18009KT 00/M01 A3024 RMK A01 T00041014  RH  087%=      5-min Rain = 0
KTAS 142003Z 19009KT 01/M01 A3024 RMK A01 T00051013  RH  088%=      5-min Rain = 0
KTAS 142004Z 19009KT 01/M01 A3024 RMK A01 T00061012  RH  088%=      5-min Rain = 0
KTAS 142005Z 18011KT 01/M01 A3024 RMK A01 T00061013  RH  088%=      5-min Rain = 0
KTAS 142006Z 17010KT 01/M01 A3024 RMK A01 T00051014  RH  087%=      5-min Rain = 0
KTAS 142007Z 18009KT 01/M01 A3024 RMK A01 T00051014  RH  088%=      5-min Rain = 0
KTAS 142008Z 17008KT 01/M01 A3024 RMK A01 T00051013  RH  088%=      5-min Rain = 0
KTAS 142009Z 18008KT 01/M01 A3024 RMK A01 T00051013  RH  088%=      5-min Rain = 0
KTAS 142010Z 19011KT 01/M01 A3024 RMK A01 T00061012  RH  088%=      5-min Rain = 0
KTAS 142011Z 18010KT 01/M01 A3024 RMK A01 T00071012  RH  088%=      5-min Rain = 0
KTAS 142012Z 17011KT 01/M01 A3024 RMK A01 T00061013  RH  087%=      5-min Rain = 0
KTAS 142013Z 18010KT 01/M01 A3023 RMK A01 T00061013  RH  087%=      5-min Rain = 0
KTAS 142014Z 17011KT 01/M01 A3023 RMK A01 T00071013  RH  087%=      5-min Rain = 0
KTAS 142015Z 18010KT 01/M01 A3023 RMK A01 T00081012  RH  087%=      5-min Rain = 0
KTAS 142016Z 18009KT 01/M01 A3023 RMK A01 T00081012  RH  086%=      5-min Rain = 0
KTAS 142017Z 18010KT 01/M01 A3023 RMK A01 T00081013  RH  086%=      5-min Rain = 0
KTAS 142018Z 19007KT 01/M01 A3023 RMK A01 T00081012  RH  086%=      5-min Rain = 0
KTAS 142019Z 18009KT 01/M01 A3023 RMK A01 T00091011  RH  087%=      5-min Rain = 0
KTAS 142020Z 19007KT 01/M01 A3023 RMK A01 T00101011  RH  086%=      5-min Rain = 0
KTAS 142021Z 18009KT 01/M01 A3023 RMK A01 T00101011  RH  086%=      5-min Rain = 0
KTAS 142022Z 18009KT 01/M01 A3023 RMK A01 T00091012  RH  086%=      5-min Rain = 0
KTAS 142023Z 17010KT 01/M01 A3023 RMK A01 T00081013  RH  086%=      5-min Rain = 0
KTAS 142024Z 17010KT 01/M01 A3023 RMK A01 T00081013  RH  086%=      5-min Rain = 0
KTAS 142025Z 16008KT 01/M01 A3023 RMK A01 T00071013  RH  086%=      5-min Rain = 0
KTAS 142026Z 17007KT 01/M01 A3023 RMK A01 T00071013  RH  086%=      5-min Rain = 0
KTAS 142027Z 17007KT 01/M01 A3023 RMK A01 T00081012  RH  087%=      5-min Rain = 0
KTAS 142028Z 17008KT 01/M01 A3023 RMK A01 T00081011  RH  087%=      5-min Rain = 0
KTAS 142029Z 17007KT 01/M01 A3023 RMK A01 T00091011  RH  087%=      5-min Rain = 0
KTAS 142030Z 17009KT 01/M01 A3022 RMK A01 T00091011  RH  087%=      5-min Rain = 0
KTAS 142031Z 18007KT 01/M01 A3022 RMK A01 T00081012  RH  086%=      5-min Rain = 0
KTAS 142032Z 18008KT 01/M01 A3022 RMK A01 T00101010  RH  087%=      5-min Rain = 0
KTAS 142033Z 17009KT 01/M01 A3022 RMK A01 T00111010  RH  086%=      5-min Rain = 0
KTAS 142034Z 18010KT 01/M01 A3022 RMK A01 T00111010  RH  086%=      5-min Rain = 0
KTAS 142035Z 18009KT 01/M01 A3022 RMK A01 T00091012  RH  086%=      5-min Rain = 0
KTAS 142036Z 17008KT 01/M01 A3022 RMK A01 T00091012  RH  086%=      5-min Rain = 0
KTAS 142037Z 17008G15KT 01/M01 A3022 RMK A01 T00091011  RH  086%=      5-min Rain = 0
KTAS 142038Z 18010KT 01/M01 A3022 RMK A01 T00091011  RH  086%=      5-min Rain = 0
KTAS 142039Z 18009KT 01/M01 A3022 RMK A01 T00101010  RH  087%=      5-min Rain = 0
KTAS 142040Z 19010KT 01/M01 A3022 RMK A01 T00111010  RH  086%=      5-min Rain = 0
KTAS 142041Z 18009KT 01/M01 A3022 RMK A01 T00101012  RH  086%=      5-min Rain = 0
KTAS 142042Z 18008KT 01/M01 A3022 RMK A01 T00091012  RH  086%=      5-min Rain = 0
KTAS 142043Z 18009KT 01/M01 A3022 RMK A01 T00091011  RH  086%=      5-min Rain = 0
KTAS 142044Z 19010KT 01/M01 A3022 RMK A01 T00091011  RH  086%=      5-min Rain = 0
KTAS 142045Z 18009KT 01/M01 A3022 RMK A01 T00091011  RH  086%=      5-min Rain = 0
KTAS 142046Z 19009KT 01/M01 A3022 RMK A01 T00091012  RH  086%=      5-min Rain = 0
KTAS 142047Z 17009KT 01/M01 A3022 RMK A01 T00101011  RH  086%=      5-min Rain = 0
KTAS 142048Z 17010KT 01/M01 A3022 RMK A01 T00101011  RH  086%=      5-min Rain = 0
KTAS 142049Z 18008KT 01/M01 A3021 RMK A01 T00101011  RH  086%=      5-min Rain = 0
KTAS 142050Z 18010KT 01/M01 A3022 RMK A01 T00111010  RH  086%=      5-min Rain = 0
KTAS 142051Z 18008KT 01/M01 A3021 RMK A01 T00111010  RH  086%=      5-min Rain = 0
KTAS 142052Z 19009KT 01/M01 A3021 RMK A01 T00121010  RH  085%=      5-min Rain = 0
KTAS 142053Z 17011KT 01/M01 A3021 RMK A01 T00131009  RH  085%=      5-min Rain = 0
KTAS 142054Z 17011KT 01/M01 A3021 RMK A01 T00131010  RH  085%=      5-min Rain = 0
KTAS 142055Z 18012KT 01/M01 A3021 RMK A01 T00121010  RH  085%=      5-min Rain = 0
KTAS 142056Z 18011KT 01/M01 A3021 RMK A01 T00121011  RH  085%=      5-min Rain = 0
KTAS 142057Z 18010KT 01/M01 A3021 RMK A01 T00121011  RH  085%=      5-min Rain = 0
KTAS 142058Z 18012KT 01/M01 A3021 RMK A01 T00131009  RH  085%=      5-min Rain = 0
KTAS 142059Z 19012KT 01/M01 A3021 RMK A01 T00131010  RH  085%=      5-min Rain = 0
KTAS 142100Z 19011KT 01/M01 A3021 RMK A01 T00121010  RH  085%=      5-min Rain = 0
KTAS 142101Z 18009KT 01/M01 A3021 RMK A01 T00141008  RH  085%=      5-min Rain = 0
KTAS 142102Z 19010KT 02/M01 A3021 RMK A01 T00151008  RH  085%=      5-min Rain = 0
KTAS 142103Z 19011KT 01/M01 A3021 RMK A01 T00141009  RH  084%=      5-min Rain = 0
KTAS 142104Z 19012KT 01/M01 A3021 RMK A01 T00141009  RH  084%=      5-min Rain = 0
KTAS 142105Z 18011KT 01/M01 A3021 RMK A01 T00141009  RH  085%=      5-min Rain = 0
KTAS 142106Z 16010KT 01/M01 A3021 RMK A01 T00141009  RH  085%=      5-min Rain = 0
KTAS 142107Z 16009KT 01/M01 A3021 RMK A01 T00141009  RH  085%=      5-min Rain = 0
KTAS 142108Z 16011KT 01/M01 A3021 RMK A01 T00141009  RH  085%=      5-min Rain = 0
KTAS 142109Z 18009KT 01/M01 A3021 RMK A01 T00131009  RH  085%=      5-min Rain = 0
KTAS 142110Z 16009KT 01/M01 A3021 RMK A01 T00141008  RH  085%=      5-min Rain = 0
KTAS 142111Z 16008KT 01/M01 A3021 RMK A01 T00141008  RH  085%=      5-min Rain = 0
KTAS 142112Z 17008KT 01/M01 A3021 RMK A01 T00141008  RH  085%=      5-min Rain = 0
KTAS 142113Z 17008KT 01/M01 A3021 RMK A01 T00141008  RH  085%=      5-min Rain = 0
KTAS 142114Z 16009KT 01/M01 A3021 RMK A01 T00131009  RH  085%=      5-min Rain = 0
KTAS 142115Z 17010KT 01/M01 A3021 RMK A01 T00141008  RH  086%=      5-min Rain = 0
KTAS 142116Z 17008KT 01/M01 A3021 RMK A01 T00141007  RH  086%=      5-min Rain = 0
KTAS 142117Z 19010KT 02/M01 A3021 RMK A01 T00151007  RH  086%=      5-min Rain = 0
KTAS 142118Z 18011KT 01/M01 A3021 RMK A01 T00141008  RH  085%=      5-min Rain = 0
KTAS 142119Z 17010KT 01/M01 A3021 RMK A01 T00141008  RH  085%=      5-min Rain = 0
KTAS 142120Z 17009KT 02/M01 A3021 RMK A01 T00151007  RH  085%=      5-min Rain = 0
KTAS 142121Z 17011KT 02/M01 A3021 RMK A01 T00151007  RH  085%=      5-min Rain = 0
KTAS 142122Z 18010KT 02/M01 A3021 RMK A01 T00151007  RH  085%=      5-min Rain = 0
KTAS 142123Z 18010KT 02/M01 A302 RMK A01 T00151008  RH  085%=      5-min Rain = 0
KTAS 142124Z 16011KT 02/M01 A302 RMK A01 T00151007  RH  085%=      5-min Rain = 0
KTAS 142125Z 16012KT 01/M01 A302 RMK A01 T00141008  RH  085%=      5-min Rain = 0
KTAS 142126Z 16010KT 01/M01 A302 RMK A01 T00131009  RH  085%=      5-min Rain = 0
KTAS 142127Z 16010KT 01/M01 A302 RMK A01 T00131009  RH  086%=      5-min Rain = 0
KTAS 142128Z 17011KT 01/M01 A302 RMK A01 T00131008  RH  086%=      5-min Rain = 0
KTAS 142129Z 16009KT 01/M01 A302 RMK A01 T00131007  RH  086%=      5-min Rain = 0
KTAS 142130Z 16010KT 01/M01 A302 RMK A01 T00141007  RH  086%=      5-min Rain = 0
KTAS 142131Z 16011KT 01/M01 A302 RMK A01 T00141007  RH  086%=      5-min Rain = 0
KTAS 142132Z 18011KT 01/M01 A302 RMK A01 T00141007  RH  086%=      5-min Rain = 0
KTAS 142133Z 18012KT 01/M01 A302 RMK A01 T00141007  RH  086%=      5-min Rain = 0
KTAS 142134Z 16009KT 01/M01 A302 RMK A01 T00131008  RH  086%=      5-min Rain = 0
KTAS 142135Z 17009KT 01/M01 A302 RMK A01 T00141007  RH  086%=      5-min Rain = 0
KTAS 142136Z 18010KT 01/M01 A302 RMK A01 T00141007  RH  086%=      5-min Rain = 0
KTAS 142137Z 17007KT 01/M01 A3019 RMK A01 T00141007  RH  086%=      5-min Rain = 0
KTAS 142138Z 18007KT 02/M01 A3019 RMK A01 T00151006  RH  086%=      5-min Rain = 0
KTAS 142139Z 18012KT 02/M01 A3019 RMK A01 T00161006  RH  086%=      5-min Rain = 0
KTAS 142140Z 17013KT 02/M01 A3019 RMK A01 T00161007  RH  085%=      5-min Rain = 0
KTAS 142141Z 17013KT 02/M01 A3019 RMK A01 T00161007  RH  085%=      5-min Rain = 0
KTAS 142142Z 17011KT 02/M01 A3019 RMK A01 T00161006  RH  085%=      5-min Rain = 0
KTAS 142143Z 17010KT 02/M01 A3019 RMK A01 T00161006  RH  085%=      5-min Rain = 0
KTAS 142144Z 17011KT 02/M01 A3019 RMK A01 T00161006  RH  085%=      5-min Rain = 0
KTAS 142145Z 16010KT 02/M01 A3019 RMK A01 T00161005  RH  085%=      5-min Rain = 0
KTAS 142146Z 16009KT 02/M01 A3019 RMK A01 T00171006  RH  085%=      5-min Rain = 0
KTAS 142147Z 16009KT 02/M01 A3019 RMK A01 T00171006  RH  085%=      5-min Rain = 0
KTAS 142148Z 17010KT 02/M01 A3019 RMK A01 T00181005  RH  085%=      5-min Rain = 0
KTAS 142149Z 18013KT 02/M01 A3019 RMK A01 T00181006  RH  085%=      5-min Rain = 0
KTAS 142150Z 18013KT 02/M01 A3019 RMK A01 T00171006  RH  085%=      5-min Rain = 0
KTAS 142151Z 18012KT 02/M01 A3019 RMK A01 T00171006  RH  085%=      5-min Rain = 0
KTAS 142152Z 18011KT 02/M01 A3019 RMK A01 T00171005  RH  085%=      5-min Rain = 0
KTAS 142153Z 17012KT 02/M00 A3019 RMK A01 T00181004  RH  085%=      5-min Rain = 0
KTAS 142154Z 18011KT 02/M00 A3019 RMK A01 T00191004  RH  085%=      5-min Rain = 0
KTAS 142155Z 18010KT 02/M00 A3019 RMK A01 T00191004  RH  084%=      5-min Rain = 0
KTAS 142156Z 18010KT 02/M00 A3019 RMK A01 T00211003  RH  084%=      5-min Rain = 0
KTAS 142157Z 19011KT 02/M00 A3019 RMK A01 T00211003  RH  084%=      5-min Rain = 0
KTAS 142158Z 18010KT 02/M00 A3019 RMK A01 T00211004  RH  083%=      5-min Rain = 0
KTAS 142159Z 18009KT 02/M00 A3019 RMK A01 T00221004  RH  083%=      5-min Rain = 0
KTAS 142200Z 18010KT 02/M00 A3019 RMK A01 T00221004  RH  083%=      5-min Rain = 0
KTAS 142201Z 18010KT 02/M00 A3019 RMK A01 T00221004  RH  083%=      5-min Rain = 0
KTAS 142202Z 17009KT 02/M00 A3019 RMK A01 T00221004  RH  083%=      5-min Rain = 0
KTAS 142203Z 18010KT 02/M00 A3019 RMK A01 T00231002  RH  084%=      5-min Rain = 0
KTAS 142204Z 19011KT 02/M00 A3019 RMK A01 T00241002  RH  083%=      5-min Rain = 0
KTAS 142205Z 19010KT 02/M00 A3019 RMK A01 T00231004  RH  083%=      5-min Rain = 0
KTAS 142206Z 17007KT 02/M00 A3019 RMK A01 T00231004  RH  083%=      5-min Rain = 0
KTAS 142207Z 16011KT 02/M00 A3019 RMK A01 T00231003  RH  083%=      5-min Rain = 0
KTAS 142208Z 16013KT 02/M01 A3019 RMK A01 T00221005  RH  083%=      5-min Rain = 0
KTAS 142209Z 15012KT 02/M01 A3019 RMK A01 T00201005  RH  083%=      5-min Rain = 0
KTAS 142210Z 16010KT 02/M01 A3019 RMK A01 T00191005  RH  084%=      5-min Rain = 0
KTAS 142211Z 16010KT 02/M00 A3018 RMK A01 T00191004  RH  084%=      5-min Rain = 0
KTAS 142212Z 17009KT 02/M00 A3018 RMK A01 T00191004  RH  085%=      5-min Rain = 0
KTAS 142213Z 16010KT 02/M00 A3018 RMK A01 T00191004  RH  085%=      5-min Rain = 0
KTAS 142214Z 16011KT 02/M00 A3018 RMK A01 T00191004  RH  084%=      5-min Rain = 0
KTAS 142215Z 16010KT 02/M00 A3018 RMK A01 T00191004  RH  085%=      5-min Rain = 0
KTAS 142216Z 16009KT 02/M00 A3018 RMK A01 T00201003  RH  085%=      5-min Rain = 0
KTAS 142217Z 16008KT 02/M00 A3018 RMK A01 T00201002  RH  085%=      5-min Rain = 0
KTAS 142218Z 16010KT 02/M00 A3018 RMK A01 T00201003  RH  085%=      5-min Rain = 0
KTAS 142219Z 16010KT 02/M00 A3018 RMK A01 T00191004  RH  085%=      5-min Rain = 0
KTAS 142220Z 16010KT 02/M00 A3019 RMK A01 T00191003  RH  085%=      5-min Rain = 0
KTAS 142221Z 16011KT 02/M00 A3018 RMK A01 T00191004  RH  085%=      5-min Rain = 0
KTAS 142222Z 18009KT 02/M00 A3018 RMK A01 T00191003  RH  085%=      5-min Rain = 0
KTAS 142223Z 18010KT 02/M00 A3018 RMK A01 T00191003  RH  085%=      5-min Rain = 0
KTAS 142224Z 18010KT 02/M00 A3018 RMK A01 T00201003  RH  085%=      5-min Rain = 0
KTAS 142225Z 16010KT 02/M00 A3018 RMK A01 T00201002  RH  085%=      5-min Rain = 0
KTAS 142226Z 16012KT 02/M00 A3018 RMK A01 T00201002  RH  085%=      5-min Rain = 0
KTAS 142227Z 17012KT 02/M00 A3018 RMK A01 T00191003  RH  085%=      5-min Rain = 0
KTAS 142228Z 17012KT 02/M00 A3018 RMK A01 T00191003  RH  085%=      5-min Rain = 0
KTAS 142229Z 17011KT 02/M00 A3018 RMK A01 T00191003  RH  085%=      5-min Rain = 0
KTAS 142230Z 17010KT 02/M00 A3018 RMK A01 T00191003  RH  086%=      5-min Rain = 0
KTAS 142231Z 17011KT 02/M00 A3018 RMK A01 T00201002  RH  086%=      5-min Rain = 0
KTAS 142232Z 17010KT 02/M00 A3018 RMK A01 T00201002  RH  085%=      5-min Rain = 0
KTAS 142233Z 17011KT 02/M00 A3018 RMK A01 T00201003  RH  085%=      5-min Rain = 0
KTAS 142234Z 16012KT 02/M00 A3018 RMK A01 T00201002  RH  085%=      5-min Rain = 0
KTAS 142235Z 16012KT 02/M00 A3018 RMK A01 T00201003  RH  085%=      5-min Rain = 0
KTAS 142236Z 15012KT 02/M00 A3018 RMK A01 T00191004  RH  085%=      5-min Rain = 0
KTAS 142237Z 15011KT 02/M00 A3018 RMK A01 T00191004  RH  085%=      5-min Rain = 0
KTAS 142238Z 16010KT 02/M00 A3018 RMK A01 T00181004  RH  085%=      5-min Rain = 0
KTAS 142239Z 16009KT 02/M00 A3018 RMK A01 T00191003  RH  085%=      5-min Rain = 0
KTAS 142240Z 16008KT 02/M00 A3018 RMK A01 T00191003  RH  085%=      5-min Rain = 0
KTAS 142241Z 17008KT 02/M00 A3018 RMK A01 T00201002  RH  085%=      5-min Rain = 0
KTAS 142242Z 17009KT 02/M00 A3018 RMK A01 T00211001  RH  085%=      5-min Rain = 0
KTAS 142243Z 16011KT 02/M00 A3018 RMK A01 T00211002  RH  085%=      5-min Rain = 0
KTAS 142244Z 17010KT 02/M00 A3018 RMK A01 T00211002  RH  084%=      5-min Rain = 0
KTAS 142245Z 17009KT 02/M00 A3018 RMK A01 T00211003  RH  084%=      5-min Rain = 0
KTAS 142246Z 17009KT 02/M00 A3018 RMK A01 T00211002  RH  085%=      5-min Rain = 0
KTAS 142247Z 18010KT 02/M00 A3018 RMK A01 T00221002  RH  085%=      5-min Rain = 0
KTAS 142248Z 16009KT 02/M00 A3018 RMK A01 T00221001  RH  085%=      5-min Rain = 0
KTAS 142249Z 16009KT 02/00 A3018 RMK A01 T00240001  RH  085%=      5-min Rain = 0
KTAS 142250Z 16010KT 02/M00 A3018 RMK A01 T00241001  RH  084%=      5-min Rain = 0
KTAS 142251Z 17010KT 02/M00 A3018 RMK A01 T00241001  RH  083%=      5-min Rain = 0
KTAS 142252Z 17009KT 02/M00 A3018 RMK A01 T00241001  RH  083%=      5-min Rain = 0
KTAS 142253Z 17008KT 02/M00 A3018 RMK A01 T00241002  RH  083%=      5-min Rain = 0
KTAS 142254Z 18007KT 02/M00 A3017 RMK A01 T00241001  RH  083%=      5-min Rain = 0
KTAS 142255Z 18007KT 02/M00 A3017 RMK A01 T00241001  RH  084%=      5-min Rain = 0
KTAS 142256Z 18007KT 03/M00 A3017 RMK A01 T00251001  RH  083%=      5-min Rain = 0
KTAS 142257Z 18009KT 03/M00 A3017 RMK A01 T00251001  RH  083%=      5-min Rain = 0
KTAS 142258Z 18009KT 03/M00 A3017 RMK A01 T00251001  RH  083%=      5-min Rain = 0
KTAS 142259Z 17009KT 03/M00 A3017 RMK A01 T00251001  RH  083%=      5-min Rain = 0
KTAS 142300Z 18010KT 03/M00 A3017 RMK A01 T00251001  RH  083%=      5-min Rain = 0
KTAS 142301Z 18010KT 03/M00 A3017 RMK A01 T00251001  RH  083%=      5-min Rain = 0
KTAS 142302Z 18010KT 03/M00 A3017 RMK A01 T00251001  RH  083%=      5-min Rain = 0
KTAS 142303Z 18010KT 03/M00 A3017 RMK A01 T00251001  RH  083%=      5-min Rain = 0
KTAS 142304Z 19010KT 03/M00 A3017 RMK A01 T00251001  RH  083%=      5-min Rain = 0
KTAS 142305Z 18010KT 03/00 A3017 RMK A01 T00260000  RH  083%=      5-min Rain = 0
KTAS 142306Z 18007KT 03/00 A3017 RMK A01 T002600-0  RH  083%=      5-min Rain = 0
KTAS 142307Z 18009KT 03/00 A3017 RMK A01 T00270001  RH  083%=      5-min Rain = 0
KTAS 142308Z 18009KT 03/00 A3017 RMK A01 T00260000  RH  083%=      5-min Rain = 0
KTAS 142309Z 17008KT 03/00 A3017 RMK A01 T002600-0  RH  083%=      5-min Rain = 0
KTAS 142310Z 18007KT 03/00 A3017 RMK A01 T00270001  RH  083%=      5-min Rain = 0
KTAS 142311Z 18008KT 03/00 A3017 RMK A01 T00270000  RH  083%=      5-min Rain = 0
KTAS 142312Z 18008KT 03/00 A3017 RMK A01 T00260000  RH  083%=      5-min Rain = 0
KTAS 142313Z 18008KT 03/00 A3017 RMK A01 T00260000  RH  083%=      5-min Rain = 0
KTAS 142314Z 17006KT 03/00 A3017 RMK A01 T00270001  RH  083%=      5-min Rain = 0
KTAS 142315Z 17008KT 03/00 A3017 RMK A01 T00260001  RH  083%=      5-min Rain = 0
KTAS 142316Z 17008KT 03/00 A3017 RMK A01 T00270001  RH  083%=      5-min Rain = 0
KTAS 142317Z 18008KT 03/00 A3017 RMK A01 T00270001  RH  083%=      5-min Rain = 0
KTAS 142318Z 17008KT 03/00 A3017 RMK A01 T00280001  RH  083%=      5-min Rain = 0
KTAS 142319Z 18007KT 03/00 A3017 RMK A01 T00280002  RH  083%=      5-min Rain = 0
KTAS 142320Z 17005KT 03/00 A3017 RMK A01 T00290003  RH  083%=      5-min Rain = 0
KTAS 142321Z 17008KT 03/00 A3017 RMK A01 T00300003  RH  083%=      5-min Rain = 0
KTAS 142322Z 17008KT 03/00 A3017 RMK A01 T00310002  RH  082%=      5-min Rain = 0
KTAS 142323Z 17008KT 03/00 A3017 RMK A01 T00300002  RH  082%=      5-min Rain = 0
KTAS 142324Z 18007KT 03/00 A3017 RMK A01 T00300002  RH  082%=      5-min Rain = 0
KTAS 142325Z 17007KT 03/00 A3017 RMK A01 T00300002  RH  082%=      5-min Rain = 0
KTAS 142326Z 17007KT 03/00 A3017 RMK A01 T00310002  RH  082%=      5-min Rain = 0
KTAS 142327Z 17007KT 03/00 A3017 RMK A01 T00310002  RH  081%=      5-min Rain = 0
KTAS 142328Z 18007KT 03/00 A3017 RMK A01 T00310002  RH  081%=      5-min Rain = 0
KTAS 142329Z 17008KT 03/00 A3017 RMK A01 T00310002  RH  081%=      5-min Rain = 0
KTAS 142330Z 17007KT 03/00 A3017 RMK A01 T00320003  RH  081%=      5-min Rain = 0
KTAS 142331Z 17008KT 03/00 A3017 RMK A01 T00320003  RH  081%=      5-min Rain = 0
KTAS 142332Z 17006KT 03/00 A3017 RMK A01 T00320002  RH  081%=      5-min Rain = 0
KTAS 142333Z 17005KT 03/00 A3017 RMK A01 T00320002  RH  081%=      5-min Rain = 0
KTAS 142334Z 17006KT 03/00 A3017 RMK A01 T00320002  RH  081%=      5-min Rain = 0
KTAS 142335Z 16006KT 03/00 A3017 RMK A01 T00320002  RH  081%=      5-min Rain = 0
KTAS 142336Z 16006KT 03/00 A3017 RMK A01 T00320002  RH  081%=      5-min Rain = 0
KTAS 142337Z 16005KT 03/00 A3017 RMK A01 T00320003  RH  081%=      5-min Rain = 0
KTAS 142338Z 16008KT 03/00 A3017 RMK A01 T00330003  RH  081%=      5-min Rain = 0
KTAS 142339Z 16006KT 03/00 A3017 RMK A01 T00330004  RH  081%=      5-min Rain = 0
KTAS 142340Z 17006KT 03/00 A3017 RMK A01 T00340004  RH  081%=      5-min Rain = 0
KTAS 142341Z 17007KT 03/00 A3017 RMK A01 T00340004  RH  081%=      5-min Rain = 0
KTAS 142342Z 17008KT 03/00 A3017 RMK A01 T00340004  RH  081%=      5-min Rain = 0
KTAS 142343Z 18008KT 03/00 A3017 RMK A01 T00340004  RH  081%=      5-min Rain = 0
KTAS 142344Z 17007KT 03/00 A3017 RMK A01 T00340004  RH  080%=      5-min Rain = 0
KTAS 142345Z 16005KT 04/01 A3017 RMK A01 T00350005  RH  081%=      5-min Rain = 0
KTAS 142346Z 16005KT 04/01 A3017 RMK A01 T00360005  RH  080%=      5-min Rain = 0
KTAS 142347Z 16006KT 04/01 A3017 RMK A01 T00360005  RH  080%=      5-min Rain = 0
KTAS 142348Z 15006KT 04/01 A3017 RMK A01 T00360005  RH  080%=      5-min Rain = 0
KTAS 142349Z 16007KT 04/01 A3017 RMK A01 T00360005  RH  080%=      5-min Rain = 0
KTAS 142350Z 15008KT 04/01 A3017 RMK A01 T00360005  RH  080%=      5-min Rain = 0
KTAS 142351Z 15007KT 04/01 A3017 RMK A01 T00360005  RH  080%=      5-min Rain = 0
KTAS 142352Z 15007KT 04/01 A3016 RMK A01 T00370005  RH  080%=      5-min Rain = 0
KTAS 142353Z 15006KT 04/01 A3016 RMK A01 T00370005  RH  080%=      5-min Rain = 0
KTAS 142354Z 16009KT 04/01 A3016 RMK A01 T00370005  RH  080%=      5-min Rain = 0
KTAS 142355Z 15008KT 04/01 A3016 RMK A01 T00370005  RH  080%=      5-min Rain = 0
KTAS 142356Z 16007KT 04/01 A3016 RMK A01 T00360005  RH  080%=      5-min Rain = 0
KTAS 142357Z 15008KT 04/01 A3016 RMK A01 T00360005  RH  080%=      5-min Rain = 0
KTAS 142358Z 15008KT 04/01 A3016 RMK A01 T00360005  RH  080%=      5-min Rain = 0
KTAS 142359Z 15006KT 04/01 A3016 RMK A01 T00360005  RH  080%=      5-min Rain = 0
KTAS 150000Z 16007KT 04/01 A3016 RMK A01 T00360005  RH  080%=      5-min Rain = 0
KTAS 150001Z 16008KT 04/01 A3016 RMK A01 T00360005  RH  080%=      5-min Rain = 0
KTAS 150002Z 16008KT 04/01 A3016 RMK A01 T00360005  RH  080%=      5-min Rain = 0
KTAS 150003Z 16008KT 04/01 A3016 RMK A01 T00360005  RH  080%=      5-min Rain = 0
KTAS 150004Z 16007KT 04/01 A3016 RMK A01 T00360005  RH  081%=      5-min Rain = 0
KTAS 150005Z 16007KT 04/01 A3016 RMK A01 T00360005  RH  081%=      5-min Rain = 0
KTAS 150006Z 16007KT 04/01 A3016 RMK A01 T00360005  RH  080%=      5-min Rain = 0
KTAS 150007Z 16006KT 04/01 A3016 RMK A01 T00360005  RH  080%=      5-min Rain = 0
KTAS 150008Z 16006KT 04/01 A3016 RMK A01 T00360005  RH  080%=      5-min Rain = 0
KTAS 150009Z 17006KT 04/01 A3016 RMK A01 T00360005  RH  080%=      5-min Rain = 0
KTAS 150010Z 16008KT 04/01 A3016 RMK A01 T00360005  RH  080%=      5-min Rain = 0
KTAS 150011Z 17008KT 04/01 A3016 RMK A01 T00360005  RH  081%=      5-min Rain = 0
KTAS 150012Z 16008KT 04/01 A3016 RMK A01 T00350005  RH  081%=      5-min Rain = 0
KTAS 150013Z 16007KT 03/01 A3016 RMK A01 T00340005  RH  081%=      5-min Rain = 0
KTAS 150014Z 16007KT 03/00 A3016 RMK A01 T00340004  RH  081%=      5-min Rain = 0
KTAS 150015Z 16008KT 03/01 A3016 RMK A01 T00340005  RH  081%=      5-min Rain = 0
KTAS 150016Z 16007KT 03/00 A3016 RMK A01 T00330004  RH  081%=      5-min Rain = 0
KTAS 150017Z 16008KT 03/01 A3016 RMK A01 T00330005  RH  082%=      5-min Rain = 0
KTAS 150018Z 16008KT 03/00 A3016 RMK A01 T00330004  RH  082%=      5-min Rain = 0
KTAS 150019Z 16008KT 03/00 A3016 RMK A01 T00320004  RH  082%=      5-min Rain = 0
KTAS 150020Z 16006KT 03/00 A3016 RMK A01 T00320004  RH  082%=      5-min Rain = 0
KTAS 150021Z 16007KT 03/00 A3016 RMK A01 T00310004  RH  082%=      5-min Rain = 0
KTAS 150022Z 16006KT 03/00 A3016 RMK A01 T00310004  RH  083%=      5-min Rain = 0
KTAS 150023Z 15007KT 03/00 A3016 RMK A01 T00310004  RH  083%=      5-min Rain = 0
KTAS 150024Z 15006KT 03/00 A3016 RMK A01 T00300004  RH  083%=      5-min Rain = 0
KTAS 150025Z 15006KT 03/00 A3016 RMK A01 T00300004  RH  083%=      5-min Rain = 0
KTAS 150026Z 16007KT 03/00 A3016 RMK A01 T00300004  RH  083%=      5-min Rain = 0
KTAS 150027Z 15007KT 03/00 A3016 RMK A01 T00300004  RH  083%=      5-min Rain = 0
KTAS 150028Z 15007KT 03/00 A3016 RMK A01 T00290003  RH  083%=      5-min Rain = 0
KTAS 150029Z 16007KT 03/00 A3016 RMK A01 T00290003  RH  083%=      5-min Rain = 0
KTAS 150030Z 16008KT 03/00 A3016 RMK A01 T00280003  RH  083%=      5-min Rain = 0
KTAS 150031Z 16008KT 03/00 A3016 RMK A01 T00280003  RH  084%=      5-min Rain = 0
KTAS 150032Z 16008KT 03/00 A3015 RMK A01 T00280003  RH  084%=      5-min Rain = 0
KTAS 150033Z 16008KT 03/00 A3016 RMK A01 T00270003  RH  084%=      5-min Rain = 0
KTAS 150034Z 16008KT 03/00 A3016 RMK A01 T00270003  RH  084%=      5-min Rain = 0
KTAS 150035Z 15007KT 03/00 A3016 RMK A01 T00270002  RH  084%=      5-min Rain = 0
KTAS 150036Z 15007KT 03/00 A3016 RMK A01 T00260002  RH  084%=      5-min Rain = 0
KTAS 150037Z 15007KT 03/00 A3015 RMK A01 T00260002  RH  084%=      5-min Rain = 0
KTAS 150038Z 15006KT 03/00 A3015 RMK A01 T00250002  RH  085%=      5-min Rain = 0
KTAS 150039Z 15006KT 03/00 A3015 RMK A01 T00260003  RH  085%=      5-min Rain = 0
KTAS 150040Z 15007KT 03/00 A3015 RMK A01 T00260003  RH  085%=      5-min Rain = 0
KTAS 150041Z 15006KT 03/00 A3015 RMK A01 T00250002  RH  085%=      5-min Rain = 0
KTAS 150042Z 14006KT 03/00 A3015 RMK A01 T00250001  RH  085%=      5-min Rain = 0
KTAS 150043Z 14006KT 02/00 A3015 RMK A01 T00240000  RH  085%=      5-min Rain = 0
KTAS 150044Z 15006KT 02/00 A3015 RMK A01 T00230001  RH  085%=      5-min Rain = 0
KTAS 150045Z 14006KT 02/00 A3015 RMK A01 T00230001  RH  085%=      5-min Rain = 0
KTAS 150046Z 14006KT 02/00 A3015 RMK A01 T00230001  RH  085%=      5-min Rain = 0
KTAS 150047Z 14006KT 02/00 A3015 RMK A01 T00230001  RH  086%=      5-min Rain = 0
KTAS 150048Z 14006KT 02/00 A3015 RMK A01 T00240002  RH  086%=      5-min Rain = 0
KTAS 150049Z 14005KT 02/00 A3015 RMK A01 T00230002  RH  086%=      5-min Rain = 0
KTAS 150050Z 14007KT 02/00 A3015 RMK A01 T00230001  RH  085%=      5-min Rain = 0
KTAS 150051Z 14007KT 02/00 A3015 RMK A01 T00230002  RH  086%=      5-min Rain = 0
KTAS 150052Z 14007KT 02/00 A3015 RMK A01 T00230002  RH  086%=      5-min Rain = 0
KTAS 150053Z 14007KT 02/00 A3015 RMK A01 T00230001  RH  086%=      5-min Rain = 0
KTAS 150054Z 14007KT 02/00 A3015 RMK A01 T00220001  RH  086%=      5-min Rain = 0
KTAS 150055Z 14007KT 02/00 A3015 RMK A01 T00220001  RH  086%=      5-min Rain = 0
KTAS 150056Z 14007KT 02/00 A3015 RMK A01 T00220001  RH  086%=      5-min Rain = 0
KTAS 150057Z 13007KT 02/00 A3015 RMK A01 T00210001  RH  086%=      5-min Rain = 0
KTAS 150058Z 13007KT 02/00 A3015 RMK A01 T00220001  RH  086%=      5-min Rain = 0
KTAS 150059Z 14007KT 02/00 A3015 RMK A01 T00220002  RH  086%=      5-min Rain = 0
KTAS 150100Z 14007KT 02/00 A3015 RMK A01 T00220001  RH  086%=      5-min Rain = 0
KTAS 150101Z 14007KT 02/00 A3015 RMK A01 T00210001  RH  086%=      5-min Rain = 0
KTAS 150102Z 14006KT 02/00 A3015 RMK A01 T00220001  RH  087%=      5-min Rain = 0
KTAS 150103Z 14006KT 02/00 A3015 RMK A01 T00220002  RH  087%=      5-min Rain = 0
KTAS 150104Z 14006KT 02/00 A3015 RMK A01 T00220002  RH  087%=      5-min Rain = 0
KTAS 150105Z 14006KT 02/00 A3015 RMK A01 T00220002  RH  087%=      5-min Rain = 0
KTAS 150106Z 14006KT 02/00 A3015 RMK A01 T00220002  RH  086%=      5-min Rain = 0
KTAS 150107Z 14006KT 02/00 A3015 RMK A01 T00220001  RH  086%=      5-min Rain = 0
KTAS 150108Z 14006KT 02/00 A3015 RMK A01 T00210001  RH  086%=      5-min Rain = 0
KTAS 150109Z 14006KT 02/00 A3015 RMK A01 T00210000  RH  086%=      5-min Rain = 0
KTAS 150110Z 15006KT 02/00 A3015 RMK A01 T00210001  RH  087%=      5-min Rain = 0
KTAS 150111Z 14006KT 02/00 A3015 RMK A01 T00210002  RH  087%=      5-min Rain = 0
KTAS 150112Z 14006KT 02/00 A3015 RMK A01 T00220001  RH  087%=      5-min Rain = 0
KTAS 150113Z 14006KT 02/00 A3015 RMK A01 T00220002  RH  087%=      5-min Rain = 0
KTAS 150114Z 14007KT 02/00 A3015 RMK A01 T00220002  RH  087%=      5-min Rain = 0
KTAS 150115Z 14007KT 02/00 A3015 RMK A01 T00220002  RH  087%=      5-min Rain = 0
KTAS 150116Z 14007KT 02/00 A3015 RMK A01 T00220002  RH  087%=      5-min Rain = 0
KTAS 150117Z 14006KT 02/00 A3015 RMK A01 T00230003  RH  087%=      5-min Rain = 0
KTAS 150118Z 15006KT 02/00 A3015 RMK A01 T00230002  RH  087%=      5-min Rain = 0
KTAS 150119Z 14006KT 02/00 A3015 RMK A01 T00220002  RH  086%=      5-min Rain = 0
KTAS 150120Z 14007KT 02/00 A3015 RMK A01 T00220002  RH  087%=      5-min Rain = 0
KTAS 150121Z 14007KT 02/00 A3015 RMK A01 T00220002  RH  087%=      5-min Rain = 0
KTAS 150122Z 14007KT 02/00 A3015 RMK A01 T00210001  RH  087%=      5-min Rain = 0
KTAS 150123Z 15007KT 02/00 A3015 RMK A01 T00210001  RH  087%=      5-min Rain = 0
KTAS 150124Z 14006KT 02/00 A3015 RMK A01 T00210001  RH  087%=      5-min Rain = 0
KTAS 150125Z 14006KT 02/00 A3015 RMK A01 T00210002  RH  087%=      5-min Rain = 0
KTAS 150126Z 14006KT 02/00 A3015 RMK A01 T00220003  RH  087%=      5-min Rain = 0
KTAS 150127Z 14006KT 02/00 A3015 RMK A01 T00220002  RH  087%=      5-min Rain = 0
KTAS 150128Z 14008KT 02/00 A3015 RMK A01 T00200001  RH  087%=      5-min Rain = 0
KTAS 150129Z 14008KT 02/00 A3015 RMK A01 T00200000  RH  087%=      5-min Rain = 0
KTAS 150130Z 13008KT 02/00 A3015 RMK A01 T00200001  RH  087%=      5-min Rain = 0
KTAS 150131Z 14009KT 02/00 A3015 RMK A01 T00200001  RH  087%=      5-min Rain = 0
KTAS 150132Z 14009KT 02/00 A3015 RMK A01 T00200001  RH  087%=      5-min Rain = 0
KTAS 150133Z 14008KT 02/00 A3015 RMK A01 T00200001  RH  087%=      5-min Rain = 0
KTAS 150134Z 14009KT 02/00 A3015 RMK A01 T00200001  RH  087%=      5-min Rain = 0
KTAS 150135Z 13008KT 02/00 A3015 RMK A01 T00210002  RH  088%=      5-min Rain = 0
KTAS 150136Z 13008KT 02/00 A3014 RMK A01 T00210002  RH  087%=      5-min Rain = 0
KTAS 150137Z 13008KT 02/00 A3014 RMK A01 T00200001  RH  087%=      5-min Rain = 0
KTAS 150138Z 13009KT 02/M00 A3014 RMK A01 T00191001  RH  087%=      5-min Rain = 0
KTAS 150139Z 13008KT 02/M00 A3015 RMK A01 T00181001  RH  087%=      5-min Rain = 0
KTAS 150140Z 13008KT 02/M00 A3015 RMK A01 T00171002  RH  087%=      5-min Rain = 0
KTAS 150141Z 14008KT 02/M00 A3014 RMK A01 T00171002  RH  088%=      5-min Rain = 0
KTAS 150142Z 14008KT 02/M00 A3014 RMK A01 T00161002  RH  088%=      5-min Rain = 0
KTAS 150143Z 14008KT 02/M00 A3014 RMK A01 T00161002  RH  088%=      5-min Rain = 0
KTAS 150144Z 14009KT 02/M00 A3014 RMK A01 T00161001  RH  088%=      5-min Rain = 0
KTAS 150145Z 14008KT 02/00 A3014 RMK A01 T00170000  RH  089%=      5-min Rain = 0
KTAS 150146Z 14007KT 02/00 A3014 RMK A01 T00190002  RH  089%=      5-min Rain = 0
KTAS 150147Z 14008KT 02/00 A3014 RMK A01 T00190002  RH  088%=      5-min Rain = 0
KTAS 150148Z 14007KT 02/00 A3014 RMK A01 T00200003  RH  088%=      5-min Rain = 0
KTAS 150149Z 15006KT 02/00 A3014 RMK A01 T00220004  RH  088%=      5-min Rain = 0
KTAS 150150Z 15006KT 02/00 A3015 RMK A01 T00230004  RH  088%=      5-min Rain = 0
KTAS 150151Z 14006KT 02/00 A3015 RMK A01 T00230004  RH  087%=      5-min Rain = 0
KTAS 150152Z 15006KT 02/00 A3015 RMK A01 T00230003  RH  087%=      5-min Rain = 0
KTAS 150153Z 15006KT 02/00 A3015 RMK A01 T00230003  RH  087%=      5-min Rain = 0
KTAS 150154Z 15006KT 02/00 A3015 RMK A01 T00230003  RH  087%=      5-min Rain = 0
KTAS 150155Z 15006KT 02/00 A3015 RMK A01 T00230003  RH  087%=      5-min Rain = 0
KTAS 150156Z 15005KT 02/00 A3015 RMK A01 T00230003  RH  087%=      5-min Rain = 0
KTAS 150157Z 15006KT 02/00 A3015 RMK A01 T00220002  RH  087%=      5-min Rain = 0
KTAS 150158Z 15006KT 02/00 A3015 RMK A01 T00220002  RH  087%=      5-min Rain = 0
KTAS 150159Z 15005KT 02/00 A3015 RMK A01 T00220002  RH  087%=      5-min Rain = 0
KTAS 150200Z 15006KT 02/00 A3015 RMK A01 T00220002  RH  087%=      5-min Rain = 0
KTAS 150201Z 15006KT 02/00 A3015 RMK A01 T00220002  RH  087%=      5-min Rain = 0
KTAS 150202Z 15007KT 02/00 A3015 RMK A01 T00210002  RH  087%=      5-min Rain = 0
KTAS 150203Z 15006KT 02/00 A3015 RMK A01 T00220002  RH  087%=      5-min Rain = 0
KTAS 150204Z 15006KT 02/00 A3015 RMK A01 T00220003  RH  087%=      5-min Rain = 0
KTAS 150205Z 15006KT 02/00 A3015 RMK A01 T00220003  RH  087%=      5-min Rain = 0
KTAS 150206Z 15006KT 02/00 A3015 RMK A01 T00230003  RH  087%=      5-min Rain = 0
KTAS 150207Z 14006KT 02/00 A3015 RMK A01 T00230003  RH  087%=      5-min Rain = 0
KTAS 150208Z 15007KT 02/00 A3015 RMK A01 T00230003  RH  087%=      5-min Rain = 0
KTAS 150209Z 15006KT 02/00 A3015 RMK A01 T00220002  RH  087%=      5-min Rain = 0
KTAS 150210Z 14005KT 02/00 A3015 RMK A01 T00220002  RH  087%=      5-min Rain = 0
KTAS 150211Z 15004KT 02/00 A3015 RMK A01 T00220002  RH  087%=      5-min Rain = 0
KTAS 150212Z 15006KT 02/00 A3015 RMK A01 T00210001  RH  087%=      5-min Rain = 0
KTAS 150213Z 14006KT 02/00 A3015 RMK A01 T00210001  RH  087%=      5-min Rain = 0
KTAS 150214Z 14007KT 02/00 A3015 RMK A01 T00210001  RH  087%=      5-min Rain = 0
KTAS 150215Z 14007KT 02/00 A3015 RMK A01 T00210001  RH  087%=      5-min Rain = 0
KTAS 150216Z 14007KT 02/00 A3015 RMK A01 T00200001  RH  087%=      5-min Rain = 0
KTAS 150217Z 14006KT 02/00 A3015 RMK A01 T00210001  RH  087%=      5-min Rain = 0
KTAS 150218Z 14006KT 02/00 A3015 RMK A01 T00210001  RH  087%=      5-min Rain = 0
KTAS 150219Z 14007KT 02/00 A3015 RMK A01 T00210001  RH  087%=      5-min Rain = 0
KTAS 150220Z 15004KT 02/00 A3015 RMK A01 T00210001  RH  087%=      5-min Rain = 0
KTAS 150221Z 15005KT 02/00 A3015 RMK A01 T00200001  RH  087%=      5-min Rain = 0
KTAS 150222Z 14004KT 02/00 A3015 RMK A01 T00200000  RH  087%=      5-min Rain = 0
KTAS 150223Z 15004KT 02/00 A3015 RMK A01 T001900-0  RH  087%=      5-min Rain = 0
KTAS 150224Z 15004KT 02/00 A3015 RMK A01 T001900-0  RH  087%=      5-min Rain = 0
KTAS 150225Z 15004KT 02/00 A3015 RMK A01 T001900-0  RH  087%=      5-min Rain = 0
KTAS 150226Z 15004KT 02/00 A3015 RMK A01 T001900-0  RH  087%=      5-min Rain = 0
KTAS 150227Z 15003KT 02/00 A3015 RMK A01 T00190000  RH  088%=      5-min Rain = 0
KTAS 150228Z 15004KT 02/00 A3015 RMK A01 T00190000  RH  088%=      5-min Rain = 0
KTAS 150229Z 16004KT 02/00 A3015 RMK A01 T00190000  RH  088%=      5-min Rain = 0
KTAS 150230Z 16004KT 02/M00 A3015 RMK A01 T00181001  RH  087%=      5-min Rain = 0
KTAS 150231Z 15004KT 02/M00 A3015 RMK A01 T00171002  RH  087%=      5-min Rain = 0
KTAS 150232Z 16004KT 02/M00 A3015 RMK A01 T00161004  RH  087%=      5-min Rain = 0
KTAS 150233Z 15005KT 02/M00 A3015 RMK A01 T00151003  RH  087%=      5-min Rain = 0
KTAS 150234Z 14004KT 02/M00 A3015 RMK A01 T00151003  RH  088%=      5-min Rain = 0
KTAS 150235Z 15005KT 02/M00 A3015 RMK A01 T00151003  RH  088%=      5-min Rain = 0
KTAS 150236Z 15004KT 02/M00 A3015 RMK A01 T00151002  RH  088%=      5-min Rain = 0
KTAS 150237Z 16005KT 02/M00 A3015 RMK A01 T00151002  RH  088%=      5-min Rain = 0
KTAS 150238Z 16005KT 02/M00 A3015 RMK A01 T00151002  RH  088%=      5-min Rain = 0
KTAS 150239Z 15004KT 02/M00 A3015 RMK A01 T00151002  RH  088%=      5-min Rain = 0
KTAS 150240Z 15004KT 02/M00 A3016 RMK A01 T00151003  RH  088%=      5-min Rain = 0
KTAS 150241Z 15004KT 02/M00 A3016 RMK A01 T00151002  RH  088%=      5-min Rain = 0
KTAS 150242Z 16004KT 02/M00 A3016 RMK A01 T00151002  RH  088%=      5-min Rain = 0
KTAS 150243Z 16005KT 02/M00 A3016 RMK A01 T00151002  RH  088%=      5-min Rain = 0
KTAS 150244Z 16005KT 01/M00 A3016 RMK A01 T00141004  RH  088%=      5-min Rain = 0
KTAS 150245Z 16005KT 01/M01 A3016 RMK A01 T00131006  RH  088%=      5-min Rain = 0
KTAS 150246Z 15005KT 01/M01 A3015 RMK A01 T00121006  RH  088%=      5-min Rain = 0
KTAS 150247Z 15004KT 01/M01 A3015 RMK A01 T00111006  RH  088%=      5-min Rain = 0
KTAS 150248Z 15005KT 01/M01 A3015 RMK A01 T00111006  RH  089%=      5-min Rain = 0
KTAS 150249Z 15005KT 01/M01 A3015 RMK A01 T00111005  RH  089%=      5-min Rain = 0
KTAS 150250Z 15005KT 01/M00 A3015 RMK A01 T00121004  RH  089%=      5-min Rain = 0
KTAS 150251Z 15005KT 01/M00 A3015 RMK A01 T00121004  RH  089%=      5-min Rain = 0
KTAS 150252Z 15005KT 01/M00 A3016 RMK A01 T00121004  RH  089%=      5-min Rain = 0
KTAS 150253Z 15005KT 01/M01 A3015 RMK A01 T00111005  RH  089%=      5-min Rain = 0
KTAS 150254Z 15003KT 01/M01 A3016 RMK A01 T00111005  RH  089%=      5-min Rain = 0
KTAS 150255Z 15004KT 01/M01 A3016 RMK A01 T00111005  RH  089%=      5-min Rain = 0
KTAS 150256Z 16004KT 01/M01 A3016 RMK A01 T00111005  RH  089%=      5-min Rain = 0
KTAS 150257Z 15005KT 01/M01 A3016 RMK A01 T00111005  RH  089%=      5-min Rain = 0
KTAS 150258Z 15004KT 01/M00 A3016 RMK A01 T00111004  RH  089%=      5-min Rain = 0
KTAS 150259Z 16004KT 01/M00 A3016 RMK A01 T00111004  RH  090%=      5-min Rain = 0
KTAS 150300Z 15005KT 01/M00 A3016 RMK A01 T00111004  RH  089%=      5-min Rain = 0
KTAS 150301Z 15004KT 01/M00 A3016 RMK A01 T00121004  RH  089%=      5-min Rain = 0
KTAS 150302Z 15004KT 01/M00 A3016 RMK A01 T00121003  RH  090%=      5-min Rain = 0
KTAS 150303Z 15004KT 01/M00 A3016 RMK A01 T00121003  RH  090%=      5-min Rain = 0
KTAS 150304Z 15004KT 01/M00 A3016 RMK A01 T00121003  RH  089%=      5-min Rain = 0
KTAS 150305Z 15005KT 01/M00 A3016 RMK A01 T00131003  RH  090%=      5-min Rain = 0
KTAS 150306Z 16005KT 01/M00 A3016 RMK A01 T00131002  RH  090%=      5-min Rain = 0
KTAS 150307Z 16005KT 01/M00 A3016 RMK A01 T00131002  RH  089%=      5-min Rain = 0
KTAS 150308Z 15005KT 01/M00 A3016 RMK A01 T00131003  RH  089%=      5-min Rain = 0
KTAS 150309Z 15005KT 01/M00 A3015 RMK A01 T00131003  RH  089%=      5-min Rain = 0
KTAS 150310Z 15004KT 01/M00 A3016 RMK A01 T00131003  RH  089%=      5-min Rain = 0
KTAS 150311Z 16005KT 01/M00 A3016 RMK A01 T00131003  RH  089%=      5-min Rain = 0
KTAS 150312Z 16005KT 01/M00 A3016 RMK A01 T00131003  RH  089%=      5-min Rain = 0
KTAS 150313Z 16005KT 01/M00 A3016 RMK A01 T00131003  RH  089%=      5-min Rain = 0
KTAS 150314Z 16005KT 01/M00 A3016 RMK A01 T00131003  RH  089%=      5-min Rain = 0
KTAS 150315Z 17005KT 01/M00 A3016 RMK A01 T00131003  RH  089%=      5-min Rain = 0
KTAS 150316Z 17006KT 01/M00 A3016 RMK A01 T00121004  RH  089%=      5-min Rain = 0
KTAS 150317Z 17006KT 01/M01 A3016 RMK A01 T00121005  RH  089%=      5-min Rain = 0
KTAS 150318Z 17005KT 01/M01 A3016 RMK A01 T00111006  RH  089%=      5-min Rain = 0
KTAS 150319Z 17005KT 01/M01 A3016 RMK A01 T00091009  RH  088%=      5-min Rain = 0
KTAS 150320Z 16005KT 01/M01 A3016 RMK A01 T00071011  RH  088%=      5-min Rain = 0
KTAS 150321Z 17006KT 01/M01 A3016 RMK A01 T00061011  RH  088%=      5-min Rain = 0
KTAS 150322Z 17006KT 01/M01 A3016 RMK A01 T00051011  RH  089%=      5-min Rain = 0
KTAS 150323Z 17007KT 01/M01 A3016 RMK A01 T00051011  RH  089%=      5-min Rain = 0
KTAS 150324Z 17007KT 01/M01 A3016 RMK A01 T00051010  RH  090%=      5-min Rain = 0
KTAS 150325Z 17008KT 00/M01 A3016 RMK A01 T00041011  RH  090%=      5-min Rain = 0
KTAS 150326Z 17008KT 00/M01 A3016 RMK A01 T00031012  RH  090%=      5-min Rain = 0
KTAS 150327Z 17008KT 00/M01 A3016 RMK A01 T00031011  RH  090%=      5-min Rain = 0
KTAS 150328Z 17007KT 00/M01 A3016 RMK A01 T00031011  RH  090%=      5-min Rain = 0
KTAS 150329Z 17008KT 00/M01 A3016 RMK A01 T00031011  RH  090%=      5-min Rain = 0
KTAS 150330Z 17008KT 00/M01 A3016 RMK A01 T00041009  RH  091%=      5-min Rain = 0
KTAS 150331Z 17008KT 01/M01 A3016 RMK A01 T00051008  RH  091%=      5-min Rain = 0
KTAS 150332Z 17008KT 01/M01 A3015 RMK A01 T00061007  RH  091%=      5-min Rain = 0
KTAS 150333Z 17009KT 01/M01 A3015 RMK A01 T00061007  RH  091%=      5-min Rain = 0
KTAS 150334Z 17008KT 01/M01 A3015 RMK A01 T00061009  RH  090%=      5-min Rain = 0
KTAS 150335Z 17008KT 00/M01 A3015 RMK A01 T00041010  RH  090%=      5-min Rain = 0
KTAS 150336Z 17009KT 00/M01 A3015 RMK A01 T00041010  RH  090%=      5-min Rain = 0
KTAS 150337Z 17009KT 01/M01 A3015 RMK A01 T00051008  RH  091%=      5-min Rain = 0
KTAS 150338Z 17009KT 01/M01 A3016 RMK A01 T00061007  RH  091%=      5-min Rain = 0
KTAS 150339Z 17009KT 01/M01 A3016 RMK A01 T00071006  RH  091%=      5-min Rain = 0
KTAS 150340Z 17009KT 01/M01 A3016 RMK A01 T00071006  RH  091%=      5-min Rain = 0
KTAS 150341Z 17009KT 01/M01 A3016 RMK A01 T00071006  RH  091%=      5-min Rain = 0
KTAS 150342Z 17009KT 01/M01 A3016 RMK A01 T00071007  RH  090%=      5-min Rain = 0
KTAS 150343Z 17009KT 01/M01 A3016 RMK A01 T00071007  RH  090%=      5-min Rain = 0
KTAS 150344Z 17009KT 01/M01 A3016 RMK A01 T00071007  RH  090%=      5-min Rain = 0
KTAS 150345Z 17009KT 01/M01 A3016 RMK A01 T00071008  RH  090%=      5-min Rain = 0
KTAS 150346Z 17009KT 01/M01 A3016 RMK A01 T00061008  RH  090%=      5-min Rain = 0
KTAS 150347Z 17010KT 01/M01 A3015 RMK A01 T00071007  RH  091%=      5-min Rain = 0
KTAS 150348Z 17009KT 01/M01 A3015 RMK A01 T00071006  RH  091%=      5-min Rain = 0
KTAS 150349Z 17010KT 01/M01 A3015 RMK A01 T00071006  RH  091%=      5-min Rain = 0
KTAS 150350Z 18010KT 01/M01 A3015 RMK A01 T00081005  RH  091%=      5-min Rain = 0
KTAS 150351Z 18010KT 01/M01 A3015 RMK A01 T00091005  RH  091%=      5-min Rain = 0
KTAS 150352Z 17009KT 01/M01 A3015 RMK A01 T00091005  RH  091%=      5-min Rain = 0
KTAS 150353Z 18009KT 01/M00 A3015 RMK A01 T00091004  RH  091%=      5-min Rain = 0
KTAS 150354Z 18009KT 01/M00 A3015 RMK A01 T00091004  RH  091%=      5-min Rain = 0
KTAS 150355Z 18008KT 01/M00 A3015 RMK A01 T00101004  RH  091%=      5-min Rain = 0
KTAS 150356Z 17009KT 01/M00 A3015 RMK A01 T00101004  RH  091%=      5-min Rain = 0
KTAS 150357Z 18009KT 01/M00 A3015 RMK A01 T00111003  RH  091%=      5-min Rain = 0
KTAS 150358Z 18009KT 01/M00 A3015 RMK A01 T00111003  RH  091%=      5-min Rain = 0
KTAS 150359Z 18009KT 01/M00 A3015 RMK A01 T00121002  RH  090%=      5-min Rain = 0
KTAS 150400Z 17009KT 01/M00 A3015 RMK A01 T00121002  RH  090%=      5-min Rain = 0
KTAS 150401Z 17009KT 01/M00 A3015 RMK A01 T00121002  RH  090%=      5-min Rain = 0
KTAS 150402Z 17008KT 01/M00 A3015 RMK A01 T00121002  RH  090%=      5-min Rain = 0
KTAS 150403Z 18009KT 01/M00 A3015 RMK A01 T00131002  RH  090%=      5-min Rain = 0
KTAS 150404Z 18008KT 01/M00 A3015 RMK A01 T00121003  RH  090%=      5-min Rain = 0
KTAS 150405Z 17008KT 01/M00 A3015 RMK A01 T00121003  RH  090%=      5-min Rain = 0
KTAS 150406Z 17007KT 01/M01 A3015 RMK A01 T00111005  RH  090%=      5-min Rain = 0
KTAS 150407Z 17008KT 01/M01 A3015 RMK A01 T00101005  RH  090%=      5-min Rain = 0
KTAS 150408Z 18008KT 01/M01 A3015 RMK A01 T00101005  RH  090%=      5-min Rain = 0
KTAS 150409Z 18008KT 01/M01 A3015 RMK A01 T00091006  RH  090%=      5-min Rain = 0
KTAS 150410Z 18008KT 01/M01 A3015 RMK A01 T00081006  RH  090%=      5-min Rain = 0
KTAS 150411Z 18008KT 01/M01 A3015 RMK A01 T00081007  RH  090%=      5-min Rain = 0
KTAS 150412Z 18008KT 01/M01 A3015 RMK A01 T00071007  RH  090%=      5-min Rain = 0
KTAS 150413Z 18008KT 01/M01 A3015 RMK A01 T00071007  RH  091%=      5-min Rain = 0
KTAS 150414Z 18009KT 01/M01 A3015 RMK A01 T00071007  RH  091%=      5-min Rain = 0
KTAS 150415Z 18008KT 01/M01 A3015 RMK A01 T00071007  RH  091%=      5-min Rain = 0
KTAS 150416Z 18008KT 01/M01 A3015 RMK A01 T00071006  RH  091%=      5-min Rain = 0
KTAS 150417Z 18008KT 01/M01 A3015 RMK A01 T00071006  RH  091%=      5-min Rain = 0
KTAS 150418Z 18008KT 01/M01 A3015 RMK A01 T00061007  RH  091%=      5-min Rain = 0
KTAS 150419Z 18009KT 01/M01 A3015 RMK A01 T00061008  RH  091%=      5-min Rain = 0
KTAS 150420Z 17009KT 01/M01 A3015 RMK A01 T00051008  RH  091%=      5-min Rain = 0
KTAS 150421Z 17009KT 01/M01 A3015 RMK A01 T00051007  RH  091%=      5-min Rain = 0
KTAS 150422Z 18009KT 01/M01 A3015 RMK A01 T00051007  RH  091%=      5-min Rain = 0
KTAS 150423Z 18009KT 01/M01 A3015 RMK A01 T00051007  RH  091%=      5-min Rain = 0
KTAS 150424Z 18009KT 01/M01 A3015 RMK A01 T00061006  RH  092%=      5-min Rain = 0
KTAS 150425Z 17009KT 01/M01 A3015 RMK A01 T00061005  RH  092%=      5-min Rain = 0
KTAS 150426Z 18009KT 01/M01 A3015 RMK A01 T00071005  RH  092%=      5-min Rain = 0
KTAS 150427Z 18008KT 01/M00 A3015 RMK A01 T00081004  RH  092%=      5-min Rain = 0
KTAS 150428Z 18008KT 01/M00 A3015 RMK A01 T00081004  RH  092%=      5-min Rain = 0
KTAS 150429Z 18008KT 01/M00 A3015 RMK A01 T00091003  RH  092%=      5-min Rain = 0
KTAS 150430Z 18008KT 01/M00 A3015 RMK A01 T00091003  RH  092%=      5-min Rain = 0
KTAS 150431Z 18008KT 01/M00 A3015 RMK A01 T00091003  RH  092%=      5-min Rain = 0
KTAS 150432Z 18008KT 01/M00 A3015 RMK A01 T00091003  RH  092%=      5-min Rain = 0
KTAS 150433Z 18008KT 01/M00 A3015 RMK A01 T00091003  RH  092%=      5-min Rain = 0
KTAS 150434Z 18008KT 01/M00 A3015 RMK A01 T00101002  RH  092%=      5-min Rain = 0
KTAS 150435Z 18008KT 01/M00 A3015 RMK A01 T00111001  RH  092%=      5-min Rain = 0
KTAS 150436Z 18008KT 01/M00 A3015 RMK A01 T00111001  RH  092%=      5-min Rain = 0
KTAS 150437Z 18008KT 01/M00 A3015 RMK A01 T00111001  RH  092%=      5-min Rain = 0
KTAS 150438Z 18008KT 01/00 A3015 RMK A01 T001200-0  RH  092%=      5-min Rain = 0
KTAS 150439Z 18008KT 01/00 A3015 RMK A01 T00120000  RH  092%=      5-min Rain = 0
KTAS 150440Z 18008KT 01/00 A3015 RMK A01 T00130001  RH  092%=      5-min Rain = 0
KTAS 150441Z 18009KT 01/00 A3015 RMK A01 T00140002  RH  092%=      5-min Rain = 0
KTAS 150442Z 18009KT 02/00 A3015 RMK A01 T00150003  RH  092%=      5-min Rain = 0
KTAS 150443Z 18009KT 02/00 A3015 RMK A01 T00160004  RH  092%=      5-min Rain = 0
KTAS 150444Z 18009KT 02/01 A3015 RMK A01 T00170005  RH  091%=      5-min Rain = 0
KTAS 150445Z 18009KT 02/01 A3015 RMK A01 T00180005  RH  091%=      5-min Rain = 0
KTAS 150446Z 18010KT 02/01 A3015 RMK A01 T00190006  RH  091%=      5-min Rain = 0
KTAS 150447Z 18009KT 02/01 A3015 RMK A01 T00200006  RH  091%=      5-min Rain = 0
KTAS 150448Z 19009KT 02/01 A3015 RMK A01 T00200005  RH  090%=      5-min Rain = 0
KTAS 150449Z 19009KT 02/01 A3015 RMK A01 T00200005  RH  090%=      5-min Rain = 0
KTAS 150450Z 19009KT 02/01 A3015 RMK A01 T00200006  RH  090%=      5-min Rain = 0
KTAS 150451Z 19009KT 02/01 A3015 RMK A01 T00210006  RH  090%=      5-min Rain = 0
KTAS 150452Z 19009KT 02/01 A3015 RMK A01 T00200005  RH  090%=      5-min Rain = 0
KTAS 150453Z 19009KT 02/01 A3015 RMK A01 T00200005  RH  090%=      5-min Rain = 0
KTAS 150454Z 19009KT 02/01 A3014 RMK A01 T00210006  RH  090%=      5-min Rain = 0
KTAS 150455Z 19010KT 02/01 A3014 RMK A01 T00210006  RH  090%=      5-min Rain = 0
KTAS 150456Z 18010KT 02/01 A3014 RMK A01 T00210006  RH  090%=      5-min Rain = 0
KTAS 150457Z 18010KT 02/01 A3014 RMK A01 T00210007  RH  090%=      5-min Rain = 0
KTAS 150458Z 18011KT 02/01 A3014 RMK A01 T00220007  RH  090%=      5-min Rain = 0
KTAS 150459Z 19009KT 02/01 A3014 RMK A01 T00230008  RH  090%=      5-min Rain = 0
KTAS 150500Z 19012KT 02/01 A3014 RMK A01 T00230008  RH  090%=      5-min Rain = 0
KTAS 150501Z 18011KT 02/01 A3014 RMK A01 T00240009  RH  090%=      5-min Rain = 0
KTAS 150502Z 19012KT 03/01 A3014 RMK A01 T00250010  RH  090%=      5-min Rain = 0
KTAS 150503Z 18010KT 03/01 A3014 RMK A01 T00250009  RH  089%=      5-min Rain = 0
KTAS 150504Z 19011KT 03/01 A3014 RMK A01 T00250009  RH  089%=      5-min Rain = 0
KTAS 150505Z 19011KT 03/01 A3014 RMK A01 T00260010  RH  089%=      5-min Rain = 0
KTAS 150506Z 19011KT 03/01 A3014 RMK A01 T00260010  RH  089%=      5-min Rain = 0
KTAS 150507Z 19012KT 03/01 A3014 RMK A01 T00260010  RH  089%=      5-min Rain = 0
KTAS 150508Z 19012KT 03/01 A3014 RMK A01 T00260010  RH  089%=      5-min Rain = 0
KTAS 150509Z 19011KT 03/01 A3014 RMK A01 T00260010  RH  089%=      5-min Rain = 0
KTAS 150510Z 19011KT 03/01 A3014 RMK A01 T00260010  RH  089%=      5-min Rain = 0
KTAS 150511Z 19011KT 03/01 A3014 RMK A01 T00260010  RH  089%=      5-min Rain = 0
KTAS 150512Z 19012KT 03/01 A3014 RMK A01 T00260009  RH  089%=      5-min Rain = 0
KTAS 150513Z 19013KT 03/01 A3014 RMK A01 T00260009  RH  089%=      5-min Rain = 0
KTAS 150514Z 19011KT 03/01 A3014 RMK A01 T00260010  RH  089%=      5-min Rain = 0
KTAS 150515Z 19012KT 03/01 A3014 RMK A01 T00270010  RH  089%=      5-min Rain = 0
KTAS 150516Z 19012KT 03/01 A3014 RMK A01 T00270011  RH  089%=      5-min Rain = 0
KTAS 150517Z 19012KT 03/01 A3014 RMK A01 T00270011  RH  089%=      5-min Rain = 0
KTAS 150518Z 19011KT 03/01 A3014 RMK A01 T00280011  RH  089%=      5-min Rain = 0
KTAS 150519Z 19011KT 03/01 A3014 RMK A01 T00280011  RH  089%=      5-min Rain = 0
KTAS 150520Z 19012KT 03/01 A3014 RMK A01 T00280012  RH  089%=      5-min Rain = 0
KTAS 150521Z 19012KT 03/01 A3013 RMK A01 T00300013  RH  089%=      5-min Rain = 0
KTAS 150522Z 19012KT 03/01 A3013 RMK A01 T00310014  RH  089%=      5-min Rain = 0
KTAS 150523Z 19011KT 03/01 A3013 RMK A01 T00310013  RH  088%=      5-min Rain = 0
KTAS 150524Z 19011KT 03/01 A3013 RMK A01 T00310013  RH  088%=      5-min Rain = 0
KTAS 150525Z 19012KT 03/01 A3013 RMK A01 T00310013  RH  088%=      5-min Rain = 0
KTAS 150526Z 19011KT 03/01 A3013 RMK A01 T00320014  RH  088%=      5-min Rain = 0
KTAS 150527Z 19011KT 03/01 A3013 RMK A01 T00320014  RH  088%=      5-min Rain = 0
KTAS 150528Z 19011KT 03/01 A3013 RMK A01 T00320014  RH  088%=      5-min Rain = 0
KTAS 150529Z 19011KT 03/01 A3013 RMK A01 T00320014  RH  088%=      5-min Rain = 0
KTAS 150530Z 19011KT 03/01 A3013 RMK A01 T00320014  RH  088%=      5-min Rain = 0
KTAS 150531Z 19012KT 03/01 A3013 RMK A01 T00320014  RH  088%=      5-min Rain = 0
KTAS 150532Z 19012KT 03/01 A3013 RMK A01 T00320014  RH  088%=      5-min Rain = 0
KTAS 150533Z 19012KT 03/01 A3013 RMK A01 T00320014  RH  088%=      5-min Rain = 0
KTAS 150534Z 19011KT 03/01 A3013 RMK A01 T00320014  RH  088%=      5-min Rain = 0
KTAS 150535Z 19012KT 03/01 A3013 RMK A01 T00320014  RH  088%=      5-min Rain = 0
KTAS 150536Z 19011KT 03/01 A3013 RMK A01 T00320014  RH  088%=      5-min Rain = 0
KTAS 150537Z 19012KT 03/01 A3013 RMK A01 T00320013  RH  088%=      5-min Rain = 0
KTAS 150538Z 19010KT 03/01 A3013 RMK A01 T00320014  RH  088%=      5-min Rain = 0
KTAS 150539Z 19010KT 03/01 A3013 RMK A01 T00310013  RH  088%=      5-min Rain = 0
KTAS 150540Z 19011KT 03/01 A3013 RMK A01 T00310013  RH  088%=      5-min Rain = 0
KTAS 150541Z 19012KT 03/01 A3013 RMK A01 T00310013  RH  088%=      5-min Rain = 0
KTAS 150542Z 19011KT 03/01 A3013 RMK A01 T00310013  RH  088%=      5-min Rain = 0
KTAS 150543Z 19011KT 03/01 A3013 RMK A01 T00310013  RH  088%=      5-min Rain = 0
KTAS 150544Z 19011KT 03/01 A3013 RMK A01 T00310013  RH  088%=      5-min Rain = 0
KTAS 150545Z 19010KT 03/01 A3013 RMK A01 T00300012  RH  088%=      5-min Rain = 0
KTAS 150546Z 19011KT 03/01 A3013 RMK A01 T00290012  RH  088%=      5-min Rain = 0
KTAS 150547Z 19010KT 03/01 A3013 RMK A01 T00290012  RH  088%=      5-min Rain = 0
KTAS 150548Z 19012KT 03/01 A3013 RMK A01 T00290012  RH  089%=      5-min Rain = 0
KTAS 150549Z 19011KT 03/01 A3013 RMK A01 T00290012  RH  089%=      5-min Rain = 0
KTAS 150550Z 19011KT 03/01 A3013 RMK A01 T00290012  RH  089%=      5-min Rain = 0
KTAS 150551Z 19012KT 03/01 A3013 RMK A01 T00290012  RH  089%=      5-min Rain = 0
KTAS 150552Z 19011KT 03/01 A3013 RMK A01 T00290012  RH  089%=      5-min Rain = 0
KTAS 150553Z 19011KT 03/01 A3013 RMK A01 T00280012  RH  089%=      5-min Rain = 0
KTAS 150554Z 19010KT 03/01 A3013 RMK A01 T00280012  RH  089%=      5-min Rain = 0
KTAS 150555Z 19011KT 03/01 A3013 RMK A01 T00280012  RH  089%=      5-min Rain = 0
KTAS 150556Z 19011KT 03/01 A3013 RMK A01 T00280011  RH  089%=      5-min Rain = 0
KTAS 150557Z 19010KT 03/01 A3013 RMK A01 T00280012  RH  089%=      5-min Rain = 0
KTAS 150558Z 19011KT 03/01 A3013 RMK A01 T00280012  RH  089%=      5-min Rain = 0
KTAS 150559Z 19010KT 03/01 A3012 RMK A01 T00280013  RH  089%=      5-min Rain = 0

Page generated in 0.096 seconds.